Wetterdaten: Freitag, 01.05.2020
Datum Zeit Temp. Aussen Temp. o. S. Temp +5cm Feuchte Auss Luftdruck Regen Sonnenschein Regendauer Solar Windben Empfang
01.05.2020 00:00 9,3 C 7,8 C 7,8 C 94 % 1000,5 hPa 0,0 l/m 0 min 0 min 0 W/m 6,4 km/h (2 Bft) 97,87 %
01.05.2020 00:02 9,3 C 7,8 C 7,8 C 94 % 1000,5 hPa 0,0 l/m 0 min 0 min 0 W/m 0,0 km/h (0 Bft) 6,67 %
01.05.2020 00:04 9,3 C 7,8 C 7,8 C 94 % 1000,5 hPa 0,0 l/m 0 min 0 min 0 W/m 0,0 km/h (0 Bft) 80,56 %
01.05.2020 00:08 9,2 C 7,8 C 7,8 C 94 % 1000,5 hPa 0,0 l/m 0 min 0 min 0 W/m 19,3 km/h (3 Bft) 96,81 %
01.05.2020 00:10 9,2 C 7,8 C 7,8 C 94 % 1000,5 hPa 0,0 l/m 0 min 0 min 0 W/m 16,1 km/h (3 Bft) 97,87 %
01.05.2020 00:12 9,2 C 7,8 C 7,8 C 94 % 1000,5 hPa 0,0 l/m 0 min 0 min 0 W/m 19,3 km/h (3 Bft) 97,56 %
01.05.2020 00:14 9,2 C 7,8 C 7,2 C 94 % 1000,4 hPa 0,0 l/m 0 min 0 min 0 W/m 12,9 km/h (3 Bft) 97,87 %
01.05.2020 00:16 9,1 C 7,8 C 7,2 C 94 % 1000,5 hPa 0,0 l/m 0 min 0 min 0 W/m 6,4 km/h (2 Bft) 97,87 %
01.05.2020 00:18 9,1 C 7,8 C 7,2 C 94 % 1000,5 hPa 0,0 l/m 0 min 0 min 0 W/m 16,1 km/h (3 Bft) 97,92 %
01.05.2020 00:20 9,1 C 7,8 C 7,2 C 94 % 1000,5 hPa 0,0 l/m 0 min 0 min 0 W/m 16,1 km/h (3 Bft) 97,92 %
01.05.2020 00:22 9,1 C 7,8 C 7,2 C 94 % 1000,5 hPa 0,0 l/m 0 min 0 min 0 W/m 12,9 km/h (3 Bft) 97,83 %
01.05.2020 00:24 9,1 C 7,8 C 7,2 C 95 % 1000,5 hPa 0,0 l/m 0 min 0 min 0 W/m 12,9 km/h (3 Bft) 95,74 %
01.05.2020 00:26 9,1 C 7,8 C 7,2 C 94 % 1000,6 hPa 0,0 l/m 0 min 0 min 0 W/m 12,9 km/h (3 Bft) 97,92 %
01.05.2020 00:28 9,1 C 7,8 C 7,2 C 94 % 1000,6 hPa 0,0 l/m 0 min 0 min 0 W/m 12,9 km/h (3 Bft) 97,87 %
01.05.2020 00:30 9,0 C 7,8 C 7,2 C 94 % 1000,6 hPa 0,0 l/m 0 min 0 min 0 W/m 19,3 km/h (3 Bft) 97,87 %
01.05.2020 00:32 8,9 C 7,8 C 7,2 C 95 % 1000,5 hPa 0,0 l/m 0 min 0 min 0 W/m 12,9 km/h (3 Bft) 97,92 %
01.05.2020 00:34 8,9 C 7,8 C 7,2 C 95 % 1000,5 hPa 0,0 l/m 0 min 0 min 0 W/m 12,9 km/h (3 Bft) 97,83 %
01.05.2020 00:36 8,9 C 7,8 C 7,2 C 95 % 1000,5 hPa 0,0 l/m 0 min 0 min 0 W/m 12,9 km/h (3 Bft) 97,87 %
01.05.2020 00:38 8,9 C 7,2 C 7,2 C 95 % 1000,5 hPa 0,0 l/m 0 min 0 min 0 W/m 6,4 km/h (2 Bft) 97,87 %
01.05.2020 00:40 8,9 C 7,2 C 7,2 C 95 % 1000,5 hPa 0,0 l/m 0 min 0 min 0 W/m 12,9 km/h (3 Bft) 95,83 %
01.05.2020 00:42 8,8 C 7,2 C 7,2 C 95 % 1000,5 hPa 0,0 l/m 0 min 0 min 0 W/m 12,9 km/h (3 Bft) 93,62 %
01.05.2020 00:44 8,8 C 7,2 C 7,2 C 95 % 1000,6 hPa 0,0 l/m 0 min 0 min 0 W/m 16,1 km/h (3 Bft) 95,65 %
01.05.2020 00:46 8,8 C 7,2 C 6,7 C 95 % 1000,6 hPa 0,0 l/m 0 min 0 min 0 W/m 6,4 km/h (2 Bft) 95,74 %
01.05.2020 00:48 8,8 C 7,2 C 6,7 C 95 % 1000,6 hPa 0,0 l/m 0 min 0 min 0 W/m 12,9 km/h (3 Bft) 97,92 %
01.05.2020 00:50 8,7 C 7,2 C 6,7 C 95 % 1000,7 hPa 0,0 l/m 0 min 0 min 0 W/m 16,1 km/h (3 Bft) 97,83 %
01.05.2020 00:52 8,7 C 7,2 C 6,7 C 95 % 1000,7 hPa 0,0 l/m 0 min 0 min 0 W/m 6,4 km/h (2 Bft) 97,87 %
01.05.2020 00:54 8,6 C 7,2 C 6,7 C 95 % 1000,7 hPa 0,0 l/m 0 min 0 min 0 W/m 12,9 km/h (3 Bft) 95,74 %
01.05.2020 00:56 8,6 C 7,2 C 6,7 C 95 % 1000,8 hPa 0,0 l/m 0 min 0 min 0 W/m 16,1 km/h (3 Bft) 97,87 %
01.05.2020 00:58 8,6 C 7,2 C 6,7 C 95 % 1000,8 hPa 0,0 l/m 0 min 0 min 0 W/m 12,9 km/h (3 Bft) 97,87 %
01.05.2020 01:00 8,6 C 7,2 C 6,7 C 95 % 1000,7 hPa 0,0 l/m 0 min 0 min 0 W/m 6,4 km/h (2 Bft) 95,74 %
01.05.2020 01:02 8,5 C 7,2 C 6,7 C 95 % 1000,7 hPa 0,0 l/m 0 min 0 min 0 W/m 6,4 km/h (2 Bft) 97,83 %
01.05.2020 01:04 8,4 C 7,2 C 6,7 C 95 % 1000,7 hPa 0,0 l/m 0 min 0 min 0 W/m 22,5 km/h (4 Bft) 97,87 %
01.05.2020 01:06 8,4 C 7,2 C 6,7 C 95 % 1000,8 hPa 0,0 l/m 0 min 0 min 0 W/m 12,9 km/h (3 Bft) 97,87 %
01.05.2020 01:08 8,4 C 7,2 C 6,7 C 95 % 1000,8 hPa 0,0 l/m 0 min 0 min 0 W/m 12,9 km/h (3 Bft) 97,56 %
01.05.2020 01:10 8,4 C 6,7 C 6,7 C 95 % 1000,8 hPa 0,0 l/m 0 min 0 min 0 W/m 6,4 km/h (2 Bft) 97,92 %
01.05.2020 01:12 8,3 C 6,7 C 6,7 C 95 % 1000,8 hPa 0,0 l/m 0 min 0 min 0 W/m 6,4 km/h (2 Bft) 95,74 %
01.05.2020 01:14 8,3 C 6,7 C 6,7 C 95 % 1000,7 hPa 0,0 l/m 0 min 0 min 0 W/m 12,9 km/h (3 Bft) 97,87 %
01.05.2020 01:16 8,3 C 6,7 C 6,7 C 95 % 1000,8 hPa 0,0 l/m 0 min 0 min 0 W/m 12,9 km/h (3 Bft) 95,74 %
01.05.2020 01:18 8,3 C 6,7 C 6,7 C 95 % 1000,8 hPa 0,0 l/m 0 min 0 min 0 W/m 6,4 km/h (2 Bft) 95,74 %
01.05.2020 01:20 8,2 C 6,7 C 6,7 C 95 % 1000,8 hPa 0,0 l/m 0 min 0 min 0 W/m 6,4 km/h (2 Bft) 93,62 %
01.05.2020 01:22 8,2 C 6,7 C 6,7 C 95 % 1000,8 hPa 0,0 l/m 0 min 0 min 0 W/m 6,4 km/h (2 Bft) 95,74 %
01.05.2020 01:24 8,2 C 6,7 C 6,7 C 95 % 1000,8 hPa 0,0 l/m 0 min 0 min 0 W/m 25,7 km/h (4 Bft) 93,62 %
01.05.2020 01:26 8,2 C 6,7 C 6,7 C 95 % 1000,8 hPa 0,0 l/m 0 min 0 min 0 W/m 12,9 km/h (3 Bft) 95,74 %
01.05.2020 01:28 8,2 C 6,7 C 6,7 C 95 % 1000,8 hPa 0,0 l/m 0 min 0 min 0 W/m 12,9 km/h (3 Bft) 97,87 %
01.05.2020 01:30 8,1 C 6,7 C 6,7 C 95 % 1000,9 hPa 0,0 l/m 0 min 0 min 0 W/m 12,9 km/h (3 Bft) 97,92 %
01.05.2020 01:32 8,1 C 6,7 C 6,7 C 95 % 1000,9 hPa 0,0 l/m 0 min 0 min 0 W/m 22,5 km/h (4 Bft) 97,83 %
01.05.2020 01:34 8,1 C 6,7 C 6,7 C 95 % 1001,0 hPa 0,0 l/m 0 min 0 min 0 W/m 9,7 km/h (2 Bft) 95,74 %
01.05.2020 01:36 8,1 C 6,7 C 6,1 C 95 % 1001,0 hPa 0,0 l/m 0 min 0 min 0 W/m 3,2 km/h (1 Bft) 97,92 %
01.05.2020 01:38 8,1 C 6,7 C 6,1 C 95 % 1001,0 hPa 0,0 l/m 0 min 0 min 0 W/m 12,9 km/h (3 Bft) 95,83 %
01.05.2020 01:40 8,1 C 6,7 C 6,1 C 95 % 1001,0 hPa 0,0 l/m 0 min 0 min 0 W/m 6,4 km/h (2 Bft) 97,87 %
01.05.2020 01:42 8,1 C 6,7 C 6,1 C 95 % 1001,0 hPa 0,0 l/m 0 min 0 min 0 W/m 16,1 km/h (3 Bft) 95,74 %
01.05.2020 01:44 8,0 C 6,7 C 6,1 C 95 % 1001,1 hPa 0,0 l/m 0 min 0 min 0 W/m 0,0 km/h (0 Bft) 97,87 %
01.05.2020 01:46 8,0 C 6,7 C 6,1 C 95 % 1001,0 hPa 0,0 l/m 0 min 0 min 0 W/m 6,4 km/h (2 Bft) 97,87 %
01.05.2020 01:48 8,0 C 6,7 C 6,1 C 95 % 1001,0 hPa 0,0 l/m 0 min 0 min 0 W/m 6,4 km/h (2 Bft) 97,83 %
01.05.2020 01:50 7,9 C 6,7 C 6,1 C 95 % 1001,0 hPa 0,0 l/m 0 min 0 min 0 W/m 6,4 km/h (2 Bft) 97,87 %
01.05.2020 01:52 7,9 C 6,7 C 6,1 C 95 % 1001,0 hPa 0,0 l/m 0 min 0 min 0 W/m 3,2 km/h (1 Bft) 97,87 %
01.05.2020 01:54 7,9 C 6,7 C 6,1 C 95 % 1001,0 hPa 0,0 l/m 0 min 0 min 0 W/m 12,9 km/h (3 Bft) 97,87 %
01.05.2020 01:56 7,9 C 6,7 C 6,1 C 95 % 1001,0 hPa 0,0 l/m 0 min 0 min 0 W/m 6,4 km/h (2 Bft) 97,87 %
01.05.2020 01:58 7,9 C 6,7 C 6,1 C 95 % 1001,0 hPa 0,0 l/m 0 min 0 min 0 W/m 6,4 km/h (2 Bft) 97,67 %
01.05.2020 02:00 7,9 C 6,7 C 6,1 C 95 % 1001,0 hPa 0,0 l/m 0 min 0 min 0 W/m 19,3 km/h (3 Bft) 97,87 %
01.05.2020 02:02 7,9 C 6,7 C 6,1 C 95 % 1001,0 hPa 0,0 l/m 0 min 0 min 0 W/m 12,9 km/h (3 Bft) 98,00 %
01.05.2020 02:04 7,9 C 6,7 C 6,1 C 95 % 1001,0 hPa 0,0 l/m 0 min 0 min 0 W/m 6,4 km/h (2 Bft) 97,87 %
01.05.2020 02:06 7,9 C 6,7 C 6,1 C 95 % 1001,0 hPa 0,0 l/m 0 min 0 min 0 W/m 6,4 km/h (2 Bft) 95,74 %
01.05.2020 02:08 7,8 C 6,7 C 6,1 C 95 % 1001,0 hPa 0,0 l/m 0 min 0 min 0 W/m 22,5 km/h (4 Bft) 97,87 %
01.05.2020 02:10 7,8 C 6,7 C 6,1 C 95 % 1001,1 hPa 0,0 l/m 0 min 0 min 0 W/m 22,5 km/h (4 Bft) 97,87 %
01.05.2020 02:12 7,8 C 6,7 C 6,1 C 95 % 1001,1 hPa 0,0 l/m 0 min 0 min 0 W/m 3,2 km/h (1 Bft) 97,83 %
01.05.2020 02:14 7,8 C 6,7 C 6,1 C 95 % 1001,1 hPa 0,0 l/m 0 min 0 min 0 W/m 16,1 km/h (3 Bft) 97,87 %
01.05.2020 02:16 7,8 C 6,7 C 6,1 C 96 % 1001,1 hPa 0,0 l/m 0 min 0 min 0 W/m 0,0 km/h (0 Bft) 97,87 %
01.05.2020 02:18 7,8 C 6,7 C 6,1 C 96 % 1001,1 hPa 0,0 l/m 0 min 0 min 0 W/m 6,4 km/h (2 Bft) 95,74 %
01.05.2020 02:20 7,8 C 6,7 C 6,1 C 96 % 1001,1 hPa 0,0 l/m 0 min 0 min 0 W/m 6,4 km/h (2 Bft) 97,87 %
01.05.2020 02:22 7,8 C 6,7 C 6,1 C 95 % 1001,1 hPa 0,0 l/m 0 min 0 min 0 W/m 12,9 km/h (3 Bft) 97,83 %
01.05.2020 02:24 7,8 C 6,7 C 6,1 C 95 % 1001,1 hPa 0,0 l/m 0 min 0 min 0 W/m 6,4 km/h (2 Bft) 97,87 %
01.05.2020 02:26 7,8 C 6,7 C 6,1 C 95 % 1001,1 hPa 0,0 l/m 0 min 0 min 0 W/m 12,9 km/h (3 Bft) 97,87 %
01.05.2020 02:28 7,8 C 6,7 C 6,1 C 95 % 1001,2 hPa 0,0 l/m 0 min 0 min 0 W/m 16,1 km/h (3 Bft) 97,87 %
01.05.2020 02:30 7,8 C 6,7 C 6,1 C 95 % 1001,1 hPa 0,0 l/m 0 min 0 min 0 W/m 6,4 km/h (2 Bft) 95,12 %
01.05.2020 02:32 7,8 C 6,7 C 6,7 C 96 % 1001,0 hPa 0,0 l/m 0 min 0 min 0 W/m 19,3 km/h (3 Bft) 95,74 %
01.05.2020 02:34 7,8 C 6,7 C 6,1 C 96 % 1001,0 hPa 0,0 l/m 0 min 0 min 0 W/m 19,3 km/h (3 Bft) 97,87 %
01.05.2020 02:36 7,8 C 6,7 C 6,1 C 96 % 1001,0 hPa 0,0 l/m 0 min 0 min 0 W/m 16,1 km/h (3 Bft) 95,83 %
01.05.2020 02:38 7,8 C 6,7 C 6,1 C 96 % 1001,0 hPa 0,2 l/m 0 min 0 min 0 W/m 12,9 km/h (3 Bft) 97,87 %
01.05.2020 02:40 7,8 C 6,7 C 6,1 C 96 % 1001,0 hPa 0,0 l/m 0 min 0 min 0 W/m 3,2 km/h (1 Bft) 95,74 %
01.05.2020 02:42 7,8 C 6,7 C 6,1 C 96 % 1001,2 hPa 0,0 l/m 0 min 0 min 0 W/m 12,9 km/h (3 Bft) 95,65 %
01.05.2020 02:44 7,8 C 7,2 C 6,7 C 96 % 1001,1 hPa 0,0 l/m 0 min 0 min 0 W/m 19,3 km/h (3 Bft) 97,87 %
01.05.2020 02:46 7,8 C 7,2 C 6,7 C 96 % 1001,0 hPa 0,0 l/m 0 min 0 min 0 W/m 12,9 km/h (3 Bft) 97,87 %
01.05.2020 02:48 7,8 C 7,2 C 6,1 C 96 % 1001,0 hPa 0,0 l/m 0 min 0 min 0 W/m 6,4 km/h (2 Bft) 97,92 %
01.05.2020 02:50 7,8 C 7,2 C 6,1 C 96 % 1001,0 hPa 0,0 l/m 0 min 0 min 0 W/m 6,4 km/h (2 Bft) 97,87 %
01.05.2020 02:52 7,8 C 6,7 C 6,1 C 96 % 1001,0 hPa 0,0 l/m 0 min 0 min 0 W/m 3,2 km/h (1 Bft) 97,83 %
01.05.2020 02:54 7,8 C 6,7 C 6,1 C 96 % 1001,0 hPa 0,0 l/m 0 min 0 min 0 W/m 3,2 km/h (1 Bft) 97,87 %
01.05.2020 02:56 7,9 C 6,7 C 6,1 C 96 % 1001,0 hPa 0,0 l/m 0 min 0 min 0 W/m 12,9 km/h (3 Bft) 97,87 %
01.05.2020 02:58 7,8 C 6,7 C 6,1 C 96 % 1001,0 hPa 0,0 l/m 0 min 0 min 0 W/m 6,4 km/h (2 Bft) 97,87 %
01.05.2020 03:00 7,8 C 6,7 C 6,1 C 96 % 1001,0 hPa 0,0 l/m 0 min 0 min 0 W/m 3,2 km/h (1 Bft) 97,92 %
01.05.2020 03:02 7,8 C 6,7 C 6,1 C 96 % 1001,0 hPa 0,0 l/m 0 min 0 min 0 W/m 3,2 km/h (1 Bft) 97,87 %
01.05.2020 03:04 7,8 C 6,7 C 6,1 C 96 % 1000,9 hPa 0,0 l/m 0 min 0 min 0 W/m 3,2 km/h (1 Bft) 97,83 %
01.05.2020 03:06 7,8 C 6,7 C 6,1 C 96 % 1000,9 hPa 0,0 l/m 0 min 0 min 0 W/m 3,2 km/h (1 Bft) 97,87 %
01.05.2020 03:08 7,8 C 6,7 C 6,1 C 96 % 1000,9 hPa 0,0 l/m 0 min 0 min 0 W/m 19,3 km/h (3 Bft) 97,87 %
01.05.2020 03:10 7,8 C 7,2 C 6,1 C 96 % 1000,9 hPa 0,0 l/m 0 min 0 min 0 W/m 12,9 km/h (3 Bft) 100,00 %
01.05.2020 03:12 7,9 C 7,2 C 6,7 C 96 % 1000,9 hPa 0,0 l/m 0 min 0 min 0 W/m 3,2 km/h (1 Bft) 100,00 %
01.05.2020 03:14 7,9 C 7,2 C 6,7 C 96 % 1000,9 hPa 0,0 l/m 0 min 0 min 0 W/m 6,4 km/h (2 Bft) 100,00 %
01.05.2020 03:16 7,9 C 7,2 C 6,7 C 96 % 1000,9 hPa 0,0 l/m 0 min 0 min 0 W/m 6,4 km/h (2 Bft) 100,00 %
01.05.2020 03:18 7,9 C 7,2 C 6,7 C 96 % 1000,9 hPa 0,0 l/m 0 min 0 min 0 W/m 0,0 km/h (0 Bft) 100,00 %
01.05.2020 03:20 7,9 C 7,2 C 6,7 C 96 % 1000,9 hPa 0,0 l/m 0 min 0 min 0 W/m 0,0 km/h (0 Bft) 100,00 %
01.05.2020 03:22 7,9 C 7,2 C 6,7 C 96 % 1001,0 hPa 0,0 l/m 0 min 0 min 0 W/m 0,0 km/h (0 Bft) 100,00 %
01.05.2020 03:24 7,9 C 7,2 C 6,7 C 96 % 1001,0 hPa 0,0 l/m 0 min 0 min 0 W/m 12,9 km/h (3 Bft) 100,00 %
01.05.2020 03:26 7,9 C 7,2 C 6,7 C 96 % 1001,0 hPa 0,0 l/m 0 min 0 min 0 W/m 3,2 km/h (1 Bft) 100,00 %
01.05.2020 03:28 7,9 C 7,2 C 6,7 C 96 % 1000,9 hPa 0,0 l/m 0 min 0 min 0 W/m 3,2 km/h (1 Bft) 100,00 %
01.05.2020 03:30 7,9 C 7,2 C 6,7 C 96 % 1000,8 hPa 0,0 l/m 0 min 0 min 0 W/m 3,2 km/h (1 Bft) 100,00 %
01.05.2020 03:32 7,9 C 7,2 C 6,7 C 96 % 1000,8 hPa 0,0 l/m 0 min 0 min 0 W/m 12,9 km/h (3 Bft) 97,83 %
01.05.2020 03:34 7,9 C 7,2 C 6,7 C 96 % 1000,8 hPa 0,0 l/m 0 min 0 min 0 W/m 0,0 km/h (0 Bft) 100,00 %
01.05.2020 03:36 7,9 C 7,2 C 6,7 C 96 % 1000,8 hPa 0,0 l/m 0 min 0 min 0 W/m 3,2 km/h (1 Bft) 97,87 %
01.05.2020 03:38 7,9 C 7,2 C 6,7 C 96 % 1000,9 hPa 0,0 l/m 0 min 0 min 0 W/m 12,9 km/h (3 Bft) 97,87 %
01.05.2020 03:40 7,9 C 7,2 C 6,7 C 96 % 1000,8 hPa 0,0 l/m 0 min 0 min 0 W/m 3,2 km/h (1 Bft) 97,87 %
01.05.2020 03:42 7,9 C 7,2 C 6,7 C 96 % 1000,8 hPa 0,0 l/m 0 min 0 min 0 W/m 3,2 km/h (1 Bft) 97,87 %
01.05.2020 03:44 7,9 C 7,2 C 6,7 C 96 % 1000,8 hPa 0,0 l/m 0 min 0 min 0 W/m 16,1 km/h (3 Bft) 95,65 %
01.05.2020 03:46 7,9 C 7,2 C 6,7 C 96 % 1000,8 hPa 0,0 l/m 0 min 0 min 0 W/m 6,4 km/h (2 Bft) 97,87 %
01.05.2020 03:48 8,0 C 7,2 C 6,7 C 96 % 1000,8 hPa 0,0 l/m 0 min 0 min 0 W/m 6,4 km/h (2 Bft) 97,87 %
01.05.2020 03:50 8,0 C 7,2 C 6,7 C 96 % 1000,8 hPa 0,0 l/m 0 min 0 min 0 W/m 12,9 km/h (3 Bft) 97,87 %
01.05.2020 03:52 8,0 C 7,2 C 6,7 C 96 % 1000,8 hPa 0,0 l/m 0 min 0 min 0 W/m 3,2 km/h (1 Bft) 97,87 %
01.05.2020 03:54 8,0 C 7,2 C 6,7 C 96 % 1000,8 hPa 0,0 l/m 0 min 0 min 0 W/m 6,4 km/h (2 Bft) 95,74 %
01.05.2020 03:56 8,0 C 7,2 C 6,7 C 96 % 1000,8 hPa 0,0 l/m 0 min 0 min 0 W/m 6,4 km/h (2 Bft) 97,83 %
01.05.2020 03:58 8,0 C 7,2 C 6,7 C 96 % 1000,8 hPa 0,0 l/m 0 min 0 min 0 W/m 16,1 km/h (3 Bft) 97,87 %
01.05.2020 04:00 8,0 C 7,2 C 6,7 C 96 % 1000,8 hPa 0,0 l/m 0 min 0 min 0 W/m 3,2 km/h (1 Bft) 97,87 %
01.05.2020 04:02 8,0 C 7,2 C 6,7 C 96 % 1000,8 hPa 0,0 l/m 0 min 0 min 0 W/m 6,4 km/h (2 Bft) 88,89 %
01.05.2020 04:04 8,1 C 7,2 C 6,7 C 96 % 1000,9 hPa 0,0 l/m 0 min 0 min 0 W/m 6,4 km/h (2 Bft) 97,56 %
01.05.2020 04:06 8,1 C 7,2 C 6,7 C 96 % 1000,9 hPa 0,0 l/m 0 min 0 min 0 W/m 12,9 km/h (3 Bft) 95,74 %
01.05.2020 04:08 8,1 C 7,2 C 6,7 C 96 % 1000,9 hPa 0,0 l/m 0 min 0 min 0 W/m 3,2 km/h (1 Bft) 97,87 %
01.05.2020 04:10 8,1 C 7,2 C 6,7 C 96 % 1001,0 hPa 0,0 l/m 0 min 0 min 0 W/m 12,9 km/h (3 Bft) 97,87 %
01.05.2020 04:12 8,1 C 7,2 C 6,7 C 96 % 1000,9 hPa 0,0 l/m 0 min 0 min 0 W/m 16,1 km/h (3 Bft) 97,87 %
01.05.2020 04:14 8,1 C 7,2 C 6,7 C 96 % 1001,0 hPa 0,0 l/m 0 min 0 min 0 W/m 16,1 km/h (3 Bft) 95,65 %
01.05.2020 04:16 8,1 C 7,2 C 6,7 C 96 % 1001,0 hPa 0,0 l/m 0 min 0 min 0 W/m 12,9 km/h (3 Bft) 95,74 %
01.05.2020 04:18 8,1 C 7,2 C 6,7 C 96 % 1000,9 hPa 0,0 l/m 0 min 0 min 0 W/m 6,4 km/h (2 Bft) 97,87 %
01.05.2020 04:20 8,1 C 7,8 C 6,7 C 96 % 1001,0 hPa 0,0 l/m 0 min 0 min 0 W/m 19,3 km/h (3 Bft) 97,87 %
01.05.2020 04:22 8,1 C 7,8 C 6,7 C 96 % 1000,9 hPa 0,0 l/m 0 min 0 min 0 W/m 22,5 km/h (4 Bft) 97,87 %
01.05.2020 04:24 8,2 C 7,8 C 6,7 C 96 % 1000,9 hPa 0,0 l/m 0 min 0 min 0 W/m 12,9 km/h (3 Bft) 97,87 %
01.05.2020 04:26 8,2 C 7,8 C 6,7 C 96 % 1001,0 hPa 0,0 l/m 0 min 0 min 0 W/m 6,4 km/h (2 Bft) 100,00 %
01.05.2020 04:28 8,2 C 7,8 C 6,7 C 96 % 1001,0 hPa 0,0 l/m 0 min 0 min 0 W/m 6,4 km/h (2 Bft) 100,00 %
01.05.2020 04:30 8,2 C 7,8 C 6,7 C 96 % 1001,0 hPa 0,0 l/m 0 min 0 min 0 W/m 16,1 km/h (3 Bft) 100,00 %
01.05.2020 04:32 8,2 C 7,8 C 6,7 C 96 % 1001,1 hPa 0,0 l/m 0 min 0 min 0 W/m 6,4 km/h (2 Bft) 97,87 %
01.05.2020 04:34 8,2 C 7,8 C 6,7 C 96 % 1001,0 hPa 0,0 l/m 0 min 0 min 0 W/m 16,1 km/h (3 Bft) 100,00 %
01.05.2020 04:36 8,2 C 7,8 C 6,7 C 96 % 1001,1 hPa 0,0 l/m 0 min 0 min 0 W/m 6,4 km/h (2 Bft) 97,87 %
01.05.2020 04:38 8,2 C 7,8 C 6,7 C 96 % 1001,2 hPa 0,0 l/m 0 min 0 min 0 W/m 12,9 km/h (3 Bft) 97,83 %
01.05.2020 04:40 8,2 C 7,8 C 6,7 C 96 % 1001,2 hPa 0,0 l/m 0 min 0 min 0 W/m 12,9 km/h (3 Bft) 97,87 %
01.05.2020 04:42 8,2 C 7,8 C 6,7 C 96 % 1001,0 hPa 0,0 l/m 0 min 0 min 0 W/m 3,2 km/h (1 Bft) 97,92 %
01.05.2020 04:44 8,2 C 7,8 C 6,7 C 96 % 1001,1 hPa 0,0 l/m 0 min 0 min 0 W/m 12,9 km/h (3 Bft) 97,87 %
01.05.2020 04:46 8,3 C 7,8 C 6,7 C 96 % 1001,0 hPa 0,0 l/m 0 min 0 min 0 W/m 6,4 km/h (2 Bft) 97,87 %
01.05.2020 04:48 8,3 C 7,8 C 6,7 C 96 % 1001,0 hPa 0,0 l/m 0 min 0 min 0 W/m 3,2 km/h (1 Bft) 100,00 %
01.05.2020 04:50 8,3 C 7,8 C 6,7 C 96 % 1001,0 hPa 0,0 l/m 0 min 0 min 0 W/m 19,3 km/h (3 Bft) 100,00 %
01.05.2020 04:52 8,3 C 7,8 C 6,7 C 96 % 1001,0 hPa 0,0 l/m 0 min 0 min 0 W/m 3,2 km/h (1 Bft) 100,00 %
01.05.2020 04:54 8,3 C 7,8 C 7,2 C 96 % 1001,0 hPa 0,0 l/m 0 min 0 min 0 W/m 16,1 km/h (3 Bft) 97,87 %
01.05.2020 04:56 8,3 C 7,8 C 7,2 C 96 % 1001,0 hPa 0,0 l/m 0 min 0 min 0 W/m 6,4 km/h (2 Bft) 95,74 %
01.05.2020 04:58 8,3 C 7,8 C 7,2 C 96 % 1001,0 hPa 0,0 l/m 0 min 0 min 0 W/m 12,9 km/h (3 Bft) 98,00 %
01.05.2020 05:00 8,3 C 7,8 C 6,7 C 96 % 1001,0 hPa 0,0 l/m 0 min 0 min 0 W/m 6,4 km/h (2 Bft) 97,83 %
01.05.2020 05:02 8,3 C 7,8 C 6,7 C 96 % 1001,0 hPa 0,0 l/m 0 min 0 min 0 W/m 6,4 km/h (2 Bft) 97,96 %
01.05.2020 05:04 8,3 C 7,8 C 6,7 C 96 % 1001,0 hPa 0,0 l/m 0 min 0 min 0 W/m 6,4 km/h (2 Bft) 97,87 %
01.05.2020 05:06 8,3 C 7,8 C 6,7 C 96 % 1001,0 hPa 0,0 l/m 0 min 0 min 0 W/m 0,0 km/h (0 Bft) 95,65 %
01.05.2020 05:08 8,3 C 7,8 C 6,7 C 96 % 1001,0 hPa 0,0 l/m 0 min 0 min 0 W/m 16,1 km/h (3 Bft) 97,87 %
01.05.2020 05:10 8,3 C 7,8 C 6,7 C 96 % 1001,1 hPa 0,0 l/m 0 min 0 min 0 W/m 0,0 km/h (0 Bft) 65,96 %
01.05.2020 05:12 8,3 C 7,8 C 6,7 C 96 % 1001,1 hPa 0,0 l/m 0 min 0 min 0 W/m 6,4 km/h (2 Bft) 80,49 %
01.05.2020 05:14 8,3 C 7,8 C 6,7 C 96 % 1001,1 hPa 0,0 l/m 0 min 0 min 0 W/m 12,9 km/h (3 Bft) 95,74 %
01.05.2020 05:16 8,3 C 7,8 C 6,7 C 96 % 1001,1 hPa 0,0 l/m 0 min 0 min 0 W/m 6,4 km/h (2 Bft) 93,48 %
01.05.2020 05:18 8,3 C 7,8 C 6,7 C 96 % 1001,1 hPa 0,0 l/m 0 min 0 min 0 W/m 6,4 km/h (2 Bft) 95,74 %
01.05.2020 05:20 8,3 C 7,8 C 6,7 C 96 % 1001,0 hPa 0,0 l/m 0 min 0 min 0 W/m 12,9 km/h (3 Bft) 95,74 %
01.05.2020 05:22 8,3 C 7,8 C 7,2 C 96 % 1001,1 hPa 0,0 l/m 0 min 0 min 0 W/m 6,4 km/h (2 Bft) 95,74 %
01.05.2020 05:24 8,3 C 7,8 C 6,7 C 96 % 1001,1 hPa 0,0 l/m 0 min 0 min 0 W/m 3,2 km/h (1 Bft) 93,62 %
01.05.2020 05:26 8,3 C 7,8 C 6,7 C 96 % 1001,0 hPa 0,0 l/m 0 min 0 min 0 W/m 16,1 km/h (3 Bft) 95,74 %
01.05.2020 05:28 8,3 C 7,8 C 6,7 C 96 % 1001,0 hPa 0,0 l/m 0 min 0 min 0 W/m 6,4 km/h (2 Bft) 95,65 %
01.05.2020 05:30 8,3 C 7,8 C 6,7 C 96 % 1001,0 hPa 0,0 l/m 0 min 0 min 0 W/m 3,2 km/h (1 Bft) 95,74 %
01.05.2020 05:32 8,3 C 7,8 C 6,7 C 96 % 1001,0 hPa 0,0 l/m 0 min 0 min 0 W/m 12,9 km/h (3 Bft) 95,74 %
01.05.2020 05:34 8,3 C 7,8 C 6,7 C 96 % 1001,0 hPa 0,0 l/m 0 min 0 min 0 W/m 12,9 km/h (3 Bft) 95,74 %
01.05.2020 05:36 8,3 C 7,8 C 6,7 C 96 % 1001,0 hPa 0,0 l/m 0 min 0 min 0 W/m 16,1 km/h (3 Bft) 95,12 %
01.05.2020 05:38 8,3 C 7,8 C 6,7 C 96 % 1001,0 hPa 0,0 l/m 0 min 0 min 0 W/m 12,9 km/h (3 Bft) 97,87 %
01.05.2020 05:40 8,3 C 7,8 C 6,7 C 96 % 1000,9 hPa 0,0 l/m 0 min 0 min 0 W/m 6,4 km/h (2 Bft) 97,92 %
01.05.2020 05:42 8,3 C 7,8 C 6,7 C 96 % 1001,0 hPa 0,0 l/m 0 min 0 min 0 W/m 12,9 km/h (3 Bft) 97,92 %
01.05.2020 05:44 8,3 C 7,8 C 6,7 C 96 % 1001,0 hPa 0,0 l/m 0 min 0 min 0 W/m 6,4 km/h (2 Bft) 97,87 %
01.05.2020 05:46 8,3 C 7,8 C 6,7 C 96 % 1001,0 hPa 0,0 l/m 0 min 0 min 0 W/m 3,2 km/h (1 Bft) 97,92 %
01.05.2020 05:48 8,2 C 7,8 C 6,7 C 96 % 1001,0 hPa 0,0 l/m 0 min 0 min 0 W/m 3,2 km/h (1 Bft) 97,87 %
01.05.2020 05:50 8,2 C 7,8 C 6,7 C 96 % 1001,0 hPa 0,0 l/m 0 min 0 min 0 W/m 9,7 km/h (2 Bft) 97,92 %
01.05.2020 05:52 8,2 C 7,8 C 6,7 C 95 % 1001,0 hPa 0,0 l/m 0 min 0 min 0 W/m 6,4 km/h (2 Bft) 97,87 %
01.05.2020 05:54 8,2 C 7,8 C 6,7 C 96 % 1001,0 hPa 0,0 l/m 0 min 0 min 0 W/m 6,4 km/h (2 Bft) 97,87 %
01.05.2020 05:56 8,2 C 7,8 C 6,7 C 96 % 1001,0 hPa 0,0 l/m 0 min 0 min 0 W/m 3,2 km/h (1 Bft) 95,74 %
01.05.2020 05:58 8,2 C 7,2 C 6,7 C 95 % 1001,0 hPa 0,0 l/m 0 min 0 min 0 W/m 6,4 km/h (2 Bft) 97,87 %
01.05.2020 06:00 8,2 C 7,2 C 6,7 C 95 % 1001,0 hPa 0,0 l/m 0 min 0 min 0 W/m 6,4 km/h (2 Bft) 97,87 %
01.05.2020 06:02 8,2 C 7,2 C 6,7 C 95 % 1001,0 hPa 0,0 l/m 0 min 0 min 0 W/m 6,4 km/h (2 Bft) 97,62 %
01.05.2020 06:04 8,1 C 7,2 C 6,7 C 95 % 1001,0 hPa 0,0 l/m 0 min 0 min 0 W/m 0,0 km/h (0 Bft) 98,00 %
01.05.2020 06:08 8,1 C 7,2 C 6,7 C 95 % 1001,0 hPa 0,0 l/m 0 min 0 min 0 W/m 12,9 km/h (3 Bft) 97,87 %
01.05.2020 06:10 8,1 C 7,2 C 6,7 C 95 % 1001,0 hPa 0,0 l/m 0 min 0 min 0 W/m 3,2 km/h (1 Bft) 95,65 %
01.05.2020 06:12 8,1 C 7,2 C 6,7 C 95 % 1001,0 hPa 0,0 l/m 0 min 0 min 0 W/m 12,9 km/h (3 Bft) 97,92 %
01.05.2020 06:14 8,1 C 7,2 C 6,7 C 95 % 1001,0 hPa 0,0 l/m 0 min 0 min 1 W/m 12,9 km/h (3 Bft) 97,87 %
01.05.2020 06:16 8,1 C 7,2 C 6,7 C 95 % 1000,9 hPa 0,0 l/m 0 min 0 min 5 W/m 3,2 km/h (1 Bft) 97,87 %
01.05.2020 06:18 8,0 C 7,2 C 6,7 C 95 % 1000,9 hPa 0,0 l/m 0 min 0 min 5 W/m 16,1 km/h (3 Bft) 97,87 %
01.05.2020 06:20 8,0 C 7,2 C 6,7 C 95 % 1000,9 hPa 0,0 l/m 0 min 0 min 5 W/m 12,9 km/h (3 Bft) 100,00 %
01.05.2020 06:22 8,0 C 7,8 C 6,7 C 95 % 1000,9 hPa 0,0 l/m 0 min 0 min 5 W/m 12,9 km/h (3 Bft) 100,00 %
01.05.2020 06:24 7,9 C 7,8 C 6,7 C 94 % 1000,9 hPa 0,0 l/m 0 min 0 min 7 W/m 16,1 km/h (3 Bft) 97,87 %
01.05.2020 06:26 7,9 C 7,2 C 6,7 C 94 % 1000,9 hPa 0,0 l/m 0 min 0 min 7 W/m 12,9 km/h (3 Bft) 97,83 %
01.05.2020 06:28 7,9 C 7,2 C 6,7 C 94 % 1001,0 hPa 0,0 l/m 0 min 0 min 7 W/m 12,9 km/h (3 Bft) 100,00 %
01.05.2020 06:30 7,9 C 7,2 C 6,7 C 94 % 1000,9 hPa 0,0 l/m 0 min 0 min 7 W/m 3,2 km/h (1 Bft) 97,87 %
01.05.2020 06:32 7,9 C 7,2 C 6,7 C 94 % 1000,9 hPa 0,0 l/m 0 min 0 min 8 W/m 6,4 km/h (2 Bft) 97,87 %
01.05.2020 06:34 7,9 C 7,2 C 6,1 C 94 % 1001,0 hPa 0,0 l/m 0 min 0 min 9 W/m 6,4 km/h (2 Bft) 97,87 %
01.05.2020 06:36 7,9 C 7,2 C 6,1 C 94 % 1000,9 hPa 0,0 l/m 0 min 0 min 11 W/m 6,4 km/h (2 Bft) 93,62 %
01.05.2020 06:38 7,8 C 7,2 C 6,1 C 94 % 1001,0 hPa 0,0 l/m 0 min 0 min 13 W/m 6,4 km/h (2 Bft) 97,56 %
01.05.2020 06:40 7,9 C 7,2 C 6,1 C 94 % 1001,0 hPa 0,0 l/m 0 min 0 min 15 W/m 3,2 km/h (1 Bft) 97,87 %
01.05.2020 06:42 7,8 C 7,2 C 6,7 C 94 % 1001,0 hPa 0,0 l/m 0 min 0 min 20 W/m 12,9 km/h (3 Bft) 97,87 %
01.05.2020 06:44 7,8 C 7,2 C 6,7 C 94 % 1001,0 hPa 0,0 l/m 0 min 0 min 27 W/m 3,2 km/h (1 Bft) 97,87 %
01.05.2020 06:46 7,8 C 7,2 C 6,7 C 94 % 1000,9 hPa 0,0 l/m 0 min 0 min 38 W/m 3,2 km/h (1 Bft) 95,65 %
01.05.2020 06:48 7,8 C 7,8 C 6,7 C 94 % 1001,0 hPa 0,0 l/m 2 min 0 min 46 W/m 6,4 km/h (2 Bft) 95,74 %
01.05.2020 06:50 7,8 C 7,8 C 6,7 C 94 % 1001,0 hPa 0,0 l/m 0 min 0 min 44 W/m 6,4 km/h (2 Bft) 95,74 %
01.05.2020 06:52 7,9 C 7,8 C 6,7 C 93 % 1000,9 hPa 0,0 l/m 0 min 0 min 40 W/m 6,4 km/h (2 Bft) 97,87 %
01.05.2020 06:54 7,8 C 7,2 C 6,7 C 93 % 1000,9 hPa 0,0 l/m 0 min 0 min 37 W/m 16,1 km/h (3 Bft) 97,87 %
01.05.2020 06:56 7,8 C 7,2 C 6,7 C 93 % 1000,9 hPa 0,0 l/m 0 min 0 min 35 W/m 6,4 km/h (2 Bft) 97,87 %
01.05.2020 06:58 7,9 C 7,2 C 6,7 C 93 % 1000,8 hPa 0,0 l/m 0 min 0 min 36 W/m 12,9 km/h (3 Bft) 97,87 %
01.05.2020 07:00 7,8 C 7,2 C 6,7 C 93 % 1000,9 hPa 0,0 l/m 0 min 0 min 40 W/m 6,4 km/h (2 Bft) 97,92 %
01.05.2020 07:02 7,8 C 7,2 C 6,7 C 93 % 1000,9 hPa 0,0 l/m 0 min 0 min 47 W/m 19,3 km/h (3 Bft) 98,00 %
01.05.2020 07:04 7,8 C 7,8 C 6,7 C 93 % 1000,9 hPa 0,0 l/m 0 min 0 min 54 W/m 3,2 km/h (1 Bft) 93,62 %
01.05.2020 07:06 7,8 C 7,8 C 6,7 C 93 % 1000,9 hPa 0,0 l/m 0 min 0 min 59 W/m 19,3 km/h (3 Bft) 93,62 %
01.05.2020 07:08 7,8 C 7,8 C 6,7 C 93 % 1000,9 hPa 0,0 l/m 0 min 0 min 54 W/m 19,3 km/h (3 Bft) 93,62 %
01.05.2020 07:10 7,8 C 7,8 C 6,7 C 93 % 1000,9 hPa 0,0 l/m 0 min 0 min 44 W/m 12,9 km/h (3 Bft) 95,74 %
01.05.2020 07:12 7,8 C 7,8 C 6,7 C 92 % 1000,9 hPa 0,0 l/m 0 min 0 min 43 W/m 22,5 km/h (4 Bft) 95,65 %
01.05.2020 07:14 7,8 C 7,8 C 6,7 C 92 % 1001,0 hPa 0,0 l/m 0 min 0 min 41 W/m 16,1 km/h (3 Bft) 95,74 %
01.05.2020 07:16 7,8 C 7,8 C 6,7 C 92 % 1001,0 hPa 0,0 l/m 0 min 0 min 41 W/m 22,5 km/h (4 Bft) 97,87 %
01.05.2020 07:18 7,8 C 7,8 C 6,7 C 92 % 1001,0 hPa 0,0 l/m 0 min 0 min 41 W/m 16,1 km/h (3 Bft) 97,87 %
01.05.2020 07:20 7,9 C 7,8 C 6,7 C 92 % 1001,0 hPa 0,0 l/m 0 min 0 min 39 W/m 22,5 km/h (4 Bft) 97,87 %
01.05.2020 07:22 7,9 C 7,8 C 6,7 C 92 % 1001,0 hPa 0,0 l/m 0 min 0 min 42 W/m 19,3 km/h (3 Bft) 97,56 %
01.05.2020 07:24 7,9 C 7,8 C 6,7 C 92 % 1001,2 hPa 0,0 l/m 0 min 0 min 47 W/m 16,1 km/h (3 Bft) 97,87 %
01.05.2020 07:26 7,9 C 7,8 C 6,7 C 92 % 1001,1 hPa 0,0 l/m 0 min 0 min 51 W/m 16,1 km/h (3 Bft) 97,92 %
01.05.2020 07:28 7,9 C 7,8 C 6,7 C 92 % 1001,1 hPa 0,0 l/m 0 min 0 min 45 W/m 16,1 km/h (3 Bft) 97,92 %
01.05.2020 07:30 7,9 C 7,8 C 6,7 C 91 % 1001,2 hPa 0,0 l/m 0 min 0 min 48 W/m 3,2 km/h (1 Bft) 97,92 %
01.05.2020 07:32 7,9 C 7,8 C 6,7 C 91 % 1001,2 hPa 0,0 l/m 0 min 0 min 59 W/m 25,7 km/h (4 Bft) 95,74 %
01.05.2020 07:34 7,9 C 7,8 C 6,7 C 91 % 1001,1 hPa 0,0 l/m 0 min 0 min 53 W/m 19,3 km/h (3 Bft) 97,87 %
01.05.2020 07:36 8,0 C 7,8 C 6,7 C 91 % 1001,1 hPa 0,0 l/m 0 min 0 min 55 W/m 6,4 km/h (2 Bft) 97,87 %
01.05.2020 07:38 8,0 C 7,8 C 6,7 C 91 % 1001,1 hPa 0,0 l/m 0 min 0 min 60 W/m 6,4 km/h (2 Bft) 97,87 %
01.05.2020 07:40 8,0 C 7,8 C 7,2 C 91 % 1001,2 hPa 0,0 l/m 0 min 0 min 62 W/m 16,1 km/h (3 Bft) 95,74 %
01.05.2020 07:42 8,1 C 7,8 C 7,2 C 91 % 1001,2 hPa 0,0 l/m 0 min 0 min 64 W/m 16,1 km/h (3 Bft) 97,87 %
01.05.2020 07:44 8,1 C 7,8 C 7,2 C 91 % 1001,2 hPa 0,0 l/m 0 min 0 min 67 W/m 16,1 km/h (3 Bft) 97,87 %
01.05.2020 07:46 8,1 C 7,8 C 7,2 C 91 % 1001,2 hPa 0,0 l/m 0 min 0 min 64 W/m 22,5 km/h (4 Bft) 97,92 %
01.05.2020 07:48 8,1 C 7,8 C 7,2 C 91 % 1001,3 hPa 0,0 l/m 0 min 0 min 66 W/m 16,1 km/h (3 Bft) 97,83 %
01.05.2020 07:50 8,1 C 7,8 C 7,2 C 91 % 1001,3 hPa 0,0 l/m 0 min 0 min 64 W/m 12,9 km/h (3 Bft) 97,87 %
01.05.2020 07:52 8,1 C 7,8 C 7,2 C 91 % 1001,3 hPa 0,0 l/m 0 min 0 min 66 W/m 12,9 km/h (3 Bft) 97,87 %
01.05.2020 07:54 8,1 C 8,3 C 7,2 C 91 % 1001,3 hPa 0,0 l/m 0 min 0 min 83 W/m 19,3 km/h (3 Bft) 97,87 %
01.05.2020 07:56 8,2 C 8,3 C 7,2 C 91 % 1001,2 hPa 0,0 l/m 0 min 0 min 85 W/m 16,1 km/h (3 Bft) 97,87 %
01.05.2020 07:58 8,2 C 8,3 C 7,2 C 91 % 1001,2 hPa 0,0 l/m 0 min 0 min 78 W/m 3,2 km/h (1 Bft) 97,56 %
01.05.2020 08:00 8,2 C 8,3 C 7,2 C 91 % 1001,3 hPa 0,0 l/m 0 min 0 min 84 W/m 16,1 km/h (3 Bft) 97,87 %
01.05.2020 08:02 8,2 C 8,3 C 7,8 C 91 % 1001,3 hPa 0,0 l/m 0 min 0 min 96 W/m 19,3 km/h (3 Bft) 96,00 %
01.05.2020 08:04 8,3 C 8,3 C 7,8 C 91 % 1001,2 hPa 0,0 l/m 0 min 0 min 94 W/m 6,4 km/h (2 Bft) 100,00 %
01.05.2020 08:06 8,3 C 8,3 C 7,8 C 91 % 1001,2 hPa 0,0 l/m 0 min 0 min 95 W/m 12,9 km/h (3 Bft) 97,87 %
01.05.2020 08:08 8,3 C 8,3 C 7,8 C 91 % 1001,2 hPa 0,0 l/m 0 min 0 min 96 W/m 19,3 km/h (3 Bft) 100,00 %
01.05.2020 08:10 8,4 C 8,3 C 7,8 C 91 % 1001,2 hPa 0,0 l/m 0 min 0 min 90 W/m 16,1 km/h (3 Bft) 100,00 %
01.05.2020 08:12 8,4 C 8,3 C 7,8 C 91 % 1001,2 hPa 0,0 l/m 0 min 0 min 94 W/m 12,9 km/h (3 Bft) 100,00 %
01.05.2020 08:14 8,4 C 8,3 C 7,8 C 91 % 1001,2 hPa 0,0 l/m 0 min 0 min 98 W/m 9,7 km/h (2 Bft) 100,00 %
01.05.2020 08:16 8,4 C 8,9 C 7,8 C 91 % 1001,2 hPa 0,0 l/m 0 min 0 min 107 W/m 6,4 km/h (2 Bft) 100,00 %
01.05.2020 08:18 8,5 C 8,9 C 7,8 C 91 % 1001,2 hPa 0,0 l/m 0 min 0 min 113 W/m 16,1 km/h (3 Bft) 100,00 %
01.05.2020 08:20 8,6 C 8,9 C 8,3 C 91 % 1001,2 hPa 0,0 l/m 0 min 0 min 125 W/m 3,2 km/h (1 Bft) 100,00 %
01.05.2020 08:22 8,6 C 8,9 C 8,3 C 91 % 1001,2 hPa 0,0 l/m 0 min 0 min 154 W/m 22,5 km/h (4 Bft) 100,00 %
01.05.2020 08:24 8,6 C 9,4 C 8,9 C 91 % 1001,2 hPa 0,0 l/m 0 min 0 min 165 W/m 19,3 km/h (3 Bft) 100,00 %
01.05.2020 08:26 8,7 C 9,4 C 8,9 C 91 % 1001,2 hPa 0,0 l/m 2 min 0 min 194 W/m 12,9 km/h (3 Bft) 100,00 %
01.05.2020 08:28 8,7 C 10,0 C 8,9 C 91 % 1001,2 hPa 0,0 l/m 2 min 0 min 190 W/m 12,9 km/h (3 Bft) 100,00 %
01.05.2020 08:30 8,8 C 10,0 C 9,4 C 91 % 1001,2 hPa 0,0 l/m 0 min 0 min 164 W/m 12,9 km/h (3 Bft) 100,00 %
01.05.2020 08:32 8,8 C 10,0 C 9,4 C 91 % 1001,2 hPa 0,0 l/m 0 min 0 min 167 W/m 12,9 km/h (3 Bft) 97,92 %
01.05.2020 08:34 8,9 C 10,0 C 8,9 C 91 % 1001,3 hPa 0,0 l/m 0 min 0 min 155 W/m 16,1 km/h (3 Bft) 100,00 %
01.05.2020 08:36 8,9 C 10,0 C 8,9 C 91 % 1001,3 hPa 0,0 l/m 0 min 0 min 122 W/m 16,1 km/h (3 Bft) 100,00 %
01.05.2020 08:38 9,0 C 9,4 C 8,9 C 91 % 1001,3 hPa 0,0 l/m 0 min 0 min 112 W/m 12,9 km/h (3 Bft) 97,87 %
01.05.2020 08:40 9,1 C 9,4 C 8,9 C 90 % 1001,3 hPa 0,0 l/m 0 min 0 min 123 W/m 12,9 km/h (3 Bft) 100,00 %
01.05.2020 08:42 9,1 C 9,4 C 8,9 C 91 % 1001,2 hPa 0,0 l/m 0 min 0 min 124 W/m 3,2 km/h (1 Bft) 100,00 %
01.05.2020 08:44 9,1 C 9,4 C 8,9 C 90 % 1001,2 hPa 0,0 l/m 0 min 0 min 113 W/m 6,4 km/h (2 Bft) 100,00 %
01.05.2020 08:46 9,2 C 9,4 C 8,9 C 90 % 1001,2 hPa 0,0 l/m 0 min 0 min 111 W/m 19,3 km/h (3 Bft) 95,65 %
01.05.2020 08:48 9,2 C 9,4 C 8,9 C 90 % 1001,2 hPa 0,0 l/m 0 min 0 min 115 W/m 12,9 km/h (3 Bft) 100,00 %
01.05.2020 08:50 9,2 C 10,0 C 8,9 C 90 % 1001,3 hPa 0,0 l/m 0 min 0 min 131 W/m 12,9 km/h (3 Bft) 100,00 %
01.05.2020 08:52 9,3 C 11,1 C 9,4 C 90 % 1001,2 hPa 0,0 l/m 0 min 0 min 201 W/m 16,1 km/h (3 Bft) 100,00 %
01.05.2020 08:54 9,3 C 11,7 C 9,4 C 90 % 1001,2 hPa 0,0 l/m 2 min 0 min 234 W/m 32,2 km/h (5 Bft) 100,00 %
01.05.2020 08:56 9,4 C 11,1 C 9,4 C 90 % 1001,3 hPa 0,0 l/m 0 min 0 min 160 W/m 12,9 km/h (3 Bft) 97,56 %
01.05.2020 08:58 9,5 C 10,6 C 9,4 C 90 % 1001,3 hPa 0,0 l/m 0 min 0 min 128 W/m 22,5 km/h (4 Bft) 98,00 %
01.05.2020 09:00 9,6 C 10,0 C 9,4 C 89 % 1001,2 hPa 0,0 l/m 0 min 0 min 128 W/m 25,7 km/h (4 Bft) 97,87 %
01.05.2020 09:02 9,6 C 10,0 C 9,4 C 89 % 1001,2 hPa 0,0 l/m 0 min 0 min 131 W/m 16,1 km/h (3 Bft) 97,96 %
01.05.2020 09:04 9,7 C 10,0 C 9,4 C 89 % 1001,3 hPa 0,0 l/m 0 min 0 min 131 W/m 19,3 km/h (3 Bft) 97,87 %
01.05.2020 09:06 9,7 C 10,0 C 9,4 C 89 % 1001,2 hPa 0,0 l/m 0 min 0 min 133 W/m 25,7 km/h (4 Bft) 97,87 %
01.05.2020 09:08 9,7 C 10,6 C 10,0 C 88 % 1001,2 hPa 0,0 l/m 0 min 0 min 151 W/m 22,5 km/h (4 Bft) 97,87 %
01.05.2020 09:10 9,8 C 10,6 C 10,0 C 88 % 1001,2 hPa 0,0 l/m 0 min 0 min 168 W/m 19,3 km/h (3 Bft) 97,83 %
01.05.2020 09:12 9,8 C 12,8 C 12,8 C 88 % 1001,2 hPa 0,0 l/m 0 min 0 min 216 W/m 16,1 km/h (3 Bft) 95,74 %
01.05.2020 09:14 9,9 C 12,8 C 13,3 C 88 % 1001,2 hPa 0,0 l/m 2 min 0 min 416 W/m 19,3 km/h (3 Bft) 93,62 %
01.05.2020 09:16 10,0 C 12,2 C 12,2 C 88 % 1001,2 hPa 0,0 l/m 2 min 0 min 382 W/m 25,7 km/h (4 Bft) 93,62 %
01.05.2020 09:18 10,1 C 13,3 C 12,8 C 88 % 1001,2 hPa 0,0 l/m 2 min 0 min 313 W/m 19,3 km/h (3 Bft) 95,74 %
01.05.2020 09:20 10,3 C 13,9 C 13,9 C 87 % 1001,2 hPa 0,0 l/m 2 min 0 min 313 W/m 29,0 km/h (5 Bft) 95,74 %
01.05.2020 09:22 10,4 C 12,8 C 12,8 C 87 % 1001,1 hPa 0,0 l/m 2 min 0 min 279 W/m 9,7 km/h (2 Bft) 95,65 %
01.05.2020 09:24 10,5 C 12,2 C 12,2 C 87 % 1001,1 hPa 0,0 l/m 2 min 0 min 254 W/m 22,5 km/h (4 Bft) 93,62 %
01.05.2020 09:26 10,6 C 12,2 C 11,7 C 86 % 1001,1 hPa 0,0 l/m 2 min 0 min 255 W/m 19,3 km/h (3 Bft) 97,62 %
01.05.2020 09:28 10,7 C 12,2 C 11,7 C 86 % 1001,0 hPa 0,0 l/m 2 min 0 min 277 W/m 16,1 km/h (3 Bft) 95,74 %
01.05.2020 09:30 10,8 C 11,7 C 11,7 C 85 % 1001,0 hPa 0,0 l/m 2 min 0 min 257 W/m 16,1 km/h (3 Bft) 93,75 %
01.05.2020 09:32 10,8 C 11,7 C 11,1 C 85 % 1001,1 hPa 0,0 l/m 0 min 0 min 199 W/m 22,5 km/h (4 Bft) 95,83 %
01.05.2020 09:34 10,9 C 11,1 C 11,1 C 84 % 1001,1 hPa 0,0 l/m 0 min 0 min 182 W/m 41,8 km/h (6 Bft) 93,62 %
01.05.2020 09:36 10,9 C 11,1 C 11,1 C 83 % 1001,1 hPa 0,0 l/m 0 min 0 min 166 W/m 25,7 km/h (4 Bft) 93,62 %
01.05.2020 09:38 10,9 C 11,1 C 11,1 C 83 % 1001,1 hPa 0,0 l/m 0 min 0 min 204 W/m 32,2 km/h (5 Bft) 95,74 %
01.05.2020 09:40 10,9 C 12,2 C 12,2 C 83 % 1001,1 hPa 0,0 l/m 0 min 0 min 227 W/m 22,5 km/h (4 Bft) 93,48 %
01.05.2020 09:42 11,0 C 13,3 C 13,9 C 83 % 1001,2 hPa 0,0 l/m 2 min 0 min 279 W/m 9,7 km/h (2 Bft) 93,75 %
01.05.2020 09:44 11,1 C 12,8 C 12,8 C 83 % 1001,1 hPa 0,0 l/m 2 min 0 min 287 W/m 12,9 km/h (3 Bft) 97,87 %
01.05.2020 09:46 11,1 C 12,2 C 12,2 C 83 % 1001,1 hPa 0,0 l/m 2 min 0 min 268 W/m 25,7 km/h (4 Bft) 95,83 %
01.05.2020 09:48 11,2 C 12,2 C 12,2 C 82 % 1001,1 hPa 0,0 l/m 0 min 0 min 237 W/m 32,2 km/h (5 Bft) 97,87 %
01.05.2020 09:50 11,2 C 11,7 C 11,7 C 82 % 1001,1 hPa 0,0 l/m 0 min 0 min 198 W/m 29,0 km/h (5 Bft) 97,87 %
01.05.2020 09:52 11,2 C 12,2 C 11,7 C 82 % 1001,0 hPa 0,0 l/m 0 min 0 min 181 W/m 16,1 km/h (3 Bft) 100,00 %
01.05.2020 09:54 11,3 C 12,8 C 12,8 C 82 % 1001,0 hPa 0,0 l/m 0 min 0 min 245 W/m 22,5 km/h (4 Bft) 97,87 %
01.05.2020 09:56 11,3 C 12,2 C 12,2 C 82 % 1001,0 hPa 0,0 l/m 2 min 0 min 281 W/m 25,7 km/h (4 Bft) 97,83 %
01.05.2020 09:58 11,3 C 12,2 C 12,2 C 82 % 1001,0 hPa 0,0 l/m 0 min 0 min 235 W/m 12,9 km/h (3 Bft) 97,87 %
01.05.2020 10:00 11,4 C 12,8 C 12,8 C 81 % 1001,1 hPa 0,0 l/m 0 min 0 min 210 W/m 29,0 km/h (5 Bft) 97,87 %
01.05.2020 10:02 11,4 C 13,3 C 12,8 C 81 % 1001,0 hPa 0,0 l/m 0 min 0 min 220 W/m 22,5 km/h (4 Bft) 100,00 %
01.05.2020 10:04 11,5 C 13,3 C 12,8 C 81 % 1001,1 hPa 0,0 l/m 2 min 0 min 290 W/m 32,2 km/h (5 Bft) 97,87 %
01.05.2020 10:06 11,6 C 13,9 C 15,6 C 81 % 1001,1 hPa 0,0 l/m 2 min 0 min 290 W/m 29,0 km/h (5 Bft) 97,87 %
01.05.2020 10:08 11,7 C 13,9 C 14,4 C 80 % 1001,1 hPa 0,0 l/m 0 min 0 min 272 W/m 25,7 km/h (4 Bft) 97,92 %
01.05.2020 10:10 11,8 C 14,4 C 15,0 C 80 % 1001,0 hPa 0,0 l/m 2 min 0 min 577 W/m 19,3 km/h (3 Bft) 97,87 %
01.05.2020 10:12 11,8 C 13,9 C 13,9 C 81 % 1001,0 hPa 0,0 l/m 2 min 0 min 310 W/m 35,4 km/h (5 Bft) 100,00 %
01.05.2020 10:14 11,9 C 13,9 C 15,0 C 80 % 1001,0 hPa 0,0 l/m 0 min 0 min 243 W/m 22,5 km/h (4 Bft) 100,00 %
01.05.2020 10:16 12,0 C 15,0 C 16,7 C 80 % 1001,0 hPa 0,0 l/m 2 min 0 min 512 W/m 29,0 km/h (5 Bft) 95,74 %
01.05.2020 10:18 12,1 C 15,6 C 17,2 C 79 % 1001,0 hPa 0,0 l/m 2 min 0 min 611 W/m 22,5 km/h (4 Bft) 97,87 %
01.05.2020 10:20 12,3 C 14,4 C 15,6 C 79 % 1000,9 hPa 0,0 l/m 2 min 0 min 615 W/m 29,0 km/h (5 Bft) 95,83 %
01.05.2020 10:22 12,3 C 15,6 C 17,2 C 78 % 1001,0 hPa 0,0 l/m 2 min 0 min 619 W/m 32,2 km/h (5 Bft) 100,00 %
01.05.2020 10:24 12,5 C 15,6 C 17,2 C 78 % 1001,0 hPa 0,0 l/m 2 min 0 min 622 W/m 29,0 km/h (5 Bft) 100,00 %
01.05.2020 10:26 12,6 C 13,3 C 14,4 C 77 % 1001,1 hPa 0,0 l/m 2 min 0 min 525 W/m 32,2 km/h (5 Bft) 95,74 %
01.05.2020 10:28 12,5 C 12,8 C 13,3 C 75 % 1001,0 hPa 0,0 l/m 2 min 0 min 319 W/m 22,5 km/h (4 Bft) 97,87 %
01.05.2020 10:30 12,5 C 12,2 C 12,2 C 75 % 1000,9 hPa 0,0 l/m 0 min 0 min 213 W/m 29,0 km/h (5 Bft) 97,87 %
01.05.2020 10:32 12,4 C 12,2 C 12,2 C 74 % 1001,0 hPa 0,0 l/m 0 min 0 min 225 W/m 38,6 km/h (5 Bft) 100,00 %
01.05.2020 10:34 12,3 C 12,2 C 11,7 C 75 % 1001,0 hPa 0,0 l/m 0 min 0 min 186 W/m 16,1 km/h (3 Bft) 100,00 %
01.05.2020 10:36 12,3 C 11,7 C 11,7 C 75 % 1001,0 hPa 0,0 l/m 0 min 0 min 169 W/m 16,1 km/h (3 Bft) 95,74 %
01.05.2020 10:38 12,2 C 11,1 C 11,1 C 75 % 1001,0 hPa 0,0 l/m 0 min 0 min 154 W/m 32,2 km/h (5 Bft) 97,87 %
01.05.2020 10:40 12,1 C 11,7 C 11,1 C 75 % 1000,9 hPa 0,0 l/m 0 min 0 min 173 W/m 25,7 km/h (4 Bft) 100,00 %
01.05.2020 10:42 12,0 C 11,7 C 11,1 C 76 % 1000,9 hPa 0,0 l/m 0 min 0 min 205 W/m 25,7 km/h (4 Bft) 97,83 %
01.05.2020 10:44 11,9 C 11,7 C 11,7 C 76 % 1001,0 hPa 0,0 l/m 0 min 0 min 275 W/m 29,0 km/h (5 Bft) 97,87 %
01.05.2020 10:46 11,9 C 12,8 C 12,8 C 76 % 1001,0 hPa 0,0 l/m 0 min 0 min 316 W/m 19,3 km/h (3 Bft) 95,92 %
01.05.2020 10:48 11,9 C 13,3 C 13,3 C 77 % 1001,0 hPa 0,0 l/m 0 min 0 min 281 W/m 22,5 km/h (4 Bft) 97,87 %
01.05.2020 10:50 11,9 C 14,4 C 13,9 C 76 % 1000,9 hPa 0,0 l/m 0 min 0 min 213 W/m 19,3 km/h (3 Bft) 97,87 %
01.05.2020 10:52 12,0 C 15,6 C 16,1 C 77 % 1000,9 hPa 0,0 l/m 0 min 0 min 213 W/m 29,0 km/h (5 Bft) 95,65 %
01.05.2020 10:54 12,1 C 14,4 C 16,1 C 77 % 1000,9 hPa 0,0 l/m 2 min 0 min 869 W/m 22,5 km/h (4 Bft) 95,74 %
01.05.2020 10:56 12,2 C 15,6 C 16,1 C 77 % 1000,8 hPa 0,0 l/m 0 min 0 min 255 W/m 19,3 km/h (3 Bft) 100,00 %
01.05.2020 10:58 12,3 C 16,1 C 17,2 C 76 % 1000,9 hPa 0,0 l/m 2 min 0 min 760 W/m 25,7 km/h (4 Bft) 95,92 %
01.05.2020 11:00 12,5 C 16,1 C 17,8 C 76 % 1000,8 hPa 0,0 l/m 2 min 0 min 455 W/m 25,7 km/h (4 Bft) 97,87 %
01.05.2020 11:02 12,7 C 15,0 C 16,1 C 76 % 1000,8 hPa 0,0 l/m 2 min 0 min 377 W/m 29,0 km/h (5 Bft) 98,00 %
01.05.2020 11:04 12,8 C 13,9 C 14,4 C 74 % 1000,8 hPa 0,0 l/m 0 min 0 min 234 W/m 32,2 km/h (5 Bft) 97,83 %
01.05.2020 11:06 12,8 C 12,8 C 13,3 C 73 % 1000,8 hPa 0,0 l/m 0 min 0 min 195 W/m 29,0 km/h (5 Bft) 95,74 %
01.05.2020 11:08 12,8 C 12,2 C 12,8 C 73 % 1000,8 hPa 0,0 l/m 0 min 0 min 202 W/m 35,4 km/h (5 Bft) 97,87 %
01.05.2020 11:10 12,8 C 12,2 C 12,2 C 72 % 1000,8 hPa 0,0 l/m 0 min 0 min 136 W/m 25,7 km/h (4 Bft) 97,87 %
01.05.2020 11:12 12,7 C 11,7 C 11,7 C 73 % 1000,8 hPa 0,0 l/m 0 min 0 min 114 W/m 25,7 km/h (4 Bft) 97,56 %
01.05.2020 11:14 12,6 C 12,2 C 11,7 C 73 % 1000,9 hPa 0,0 l/m 0 min 0 min 174 W/m 22,5 km/h (4 Bft) 97,87 %
01.05.2020 11:16 12,6 C 13,9 C 12,8 C 74 % 1000,9 hPa 0,0 l/m 0 min 0 min 236 W/m 25,7 km/h (4 Bft) 97,92 %
01.05.2020 11:18 12,6 C 13,9 C 13,3 C 74 % 1000,9 hPa 0,0 l/m 0 min 0 min 257 W/m 19,3 km/h (3 Bft) 95,83 %
01.05.2020 11:20 12,6 C 13,3 C 12,8 C 74 % 1000,9 hPa 0,0 l/m 0 min 0 min 252 W/m 25,7 km/h (4 Bft) 97,87 %
01.05.2020 11:22 12,6 C 13,3 C 12,8 C 74 % 1000,8 hPa 0,0 l/m 0 min 0 min 245 W/m 22,5 km/h (4 Bft) 95,83 %
01.05.2020 11:24 12,6 C 14,4 C 13,3 C 73 % 1000,9 hPa 0,0 l/m 0 min 0 min 283 W/m 29,0 km/h (5 Bft) 97,83 %
01.05.2020 11:26 12,7 C 15,0 C 13,3 C 74 % 1000,8 hPa 0,0 l/m 0 min 0 min 283 W/m 32,2 km/h (5 Bft) 95,83 %
01.05.2020 11:28 12,8 C 17,2 C 13,9 C 74 % 1000,8 hPa 0,0 l/m 2 min 0 min 736 W/m 19,3 km/h (3 Bft) 97,92 %
01.05.2020 11:30 12,9 C 16,7 C 13,9 C 74 % 1000,9 hPa 0,0 l/m 2 min 0 min 853 W/m 16,1 km/h (3 Bft) 97,87 %
01.05.2020 11:32 13,0 C 18,3 C 14,4 C 75 % 1000,8 hPa 0,0 l/m 2 min 0 min 848 W/m 12,9 km/h (3 Bft) 97,87 %
01.05.2020 11:34 13,2 C 18,3 C 15,0 C 75 % 1000,8 hPa 0,0 l/m 2 min 0 min 850 W/m 22,5 km/h (4 Bft) 95,74 %
01.05.2020 11:36 13,3 C 18,3 C 15,0 C 74 % 1000,8 hPa 0,0 l/m 2 min 0 min 865 W/m 19,3 km/h (3 Bft) 95,74 %
01.05.2020 11:38 13,4 C 17,8 C 15,0 C 74 % 1000,8 hPa 0,0 l/m 2 min 0 min 920 W/m 38,6 km/h (5 Bft) 95,74 %
01.05.2020 11:40 13,6 C 16,7 C 14,4 C 71 % 1000,7 hPa 0,0 l/m 2 min 0 min 944 W/m 25,7 km/h (4 Bft) 95,65 %
01.05.2020 11:42 13,7 C 16,1 C 14,4 C 71 % 1000,8 hPa 0,0 l/m 2 min 0 min 937 W/m 25,7 km/h (4 Bft) 93,62 %
01.05.2020 11:44 13,8 C 17,8 C 15,0 C 70 % 1000,8 hPa 0,0 l/m 2 min 0 min 985 W/m 35,4 km/h (5 Bft) 93,62 %
01.05.2020 11:46 13,9 C 17,8 C 15,0 C 70 % 1000,9 hPa 0,0 l/m 2 min 0 min 952 W/m 41,8 km/h (6 Bft) 95,74 %
01.05.2020 11:48 14,1 C 17,2 C 14,4 C 69 % 1000,9 hPa 0,0 l/m 2 min 0 min 999 W/m 32,2 km/h (5 Bft) 97,87 %
01.05.2020 11:50 14,1 C 16,1 C 14,4 C 67 % 1000,6 hPa 0,0 l/m 2 min 0 min 851 W/m 35,4 km/h (5 Bft) 95,74 %
01.05.2020 11:52 14,2 C 14,4 C 13,9 C 67 % 1000,8 hPa 0,0 l/m 0 min 0 min 280 W/m 32,2 km/h (5 Bft) 93,48 %
01.05.2020 11:54 14,1 C 13,9 C 13,3 C 67 % 1000,8 hPa 0,0 l/m 0 min 0 min 233 W/m 38,6 km/h (5 Bft) 93,62 %
01.05.2020 11:56 14,0 C 13,3 C 12,8 C 66 % 1000,7 hPa 0,0 l/m 0 min 0 min 173 W/m 29,0 km/h (5 Bft) 89,36 %
01.05.2020 11:58 13,8 C 12,8 C 12,8 C 67 % 1000,7 hPa 0,0 l/m 0 min 0 min 189 W/m 38,6 km/h (5 Bft) 97,67 %
01.05.2020 12:00 13,8 C 12,8 C 12,8 C 68 % 1000,8 hPa 0,0 l/m 0 min 0 min 217 W/m 25,7 km/h (4 Bft) 89,36 %
01.05.2020 12:02 13,7 C 12,8 C 12,8 C 68 % 1000,8 hPa 0,0 l/m 0 min 0 min 208 W/m 22,5 km/h (4 Bft) 95,74 %
01.05.2020 12:04 13,6 C 13,9 C 12,8 C 68 % 1000,7 hPa 0,0 l/m 0 min 0 min 222 W/m 32,2 km/h (5 Bft) 95,74 %
01.05.2020 12:08 13,6 C 16,1 C 13,9 C 69 % 1000,6 hPa 0,0 l/m 4 min 0 min 890 W/m 25,7 km/h (4 Bft) 93,68 %
01.05.2020 12:10 13,6 C 16,7 C 14,4 C 69 % 1000,6 hPa 0,0 l/m 2 min 0 min 1058 W/m 25,7 km/h (4 Bft) 95,65 %
01.05.2020 12:12 13,6 C 18,3 C 15,0 C 70 % 1000,6 hPa 0,0 l/m 2 min 0 min 864 W/m 22,5 km/h (4 Bft) 93,75 %
01.05.2020 12:14 13,8 C 18,9 C 15,6 C 71 % 1000,6 hPa 0,0 l/m 2 min 0 min 915 W/m 16,1 km/h (3 Bft) 95,74 %
01.05.2020 12:16 13,9 C 18,9 C 15,0 C 70 % 1000,6 hPa 0,0 l/m 2 min 0 min 958 W/m 29,0 km/h (5 Bft) 95,83 %
01.05.2020 12:18 14,1 C 17,8 C 15,0 C 70 % 1000,5 hPa 0,0 l/m 2 min 0 min 969 W/m 16,1 km/h (3 Bft) 95,74 %
01.05.2020 12:20 14,2 C 17,2 C 15,0 C 69 % 1000,6 hPa 0,0 l/m 0 min 0 min 374 W/m 29,0 km/h (5 Bft) 97,87 %
01.05.2020 12:22 14,3 C 16,7 C 15,0 C 68 % 1000,5 hPa 0,0 l/m 2 min 0 min 953 W/m 38,6 km/h (5 Bft) 95,74 %
01.05.2020 12:24 14,3 C 14,4 C 14,4 C 67 % 1000,5 hPa 0,0 l/m 2 min 0 min 551 W/m 48,3 km/h (6 Bft) 97,87 %
01.05.2020 12:26 14,3 C 15,6 C 14,4 C 66 % 1000,5 hPa 0,0 l/m 0 min 0 min 342 W/m 25,7 km/h (4 Bft) 97,83 %
01.05.2020 12:28 14,3 C 17,2 C 15,0 C 67 % 1000,4 hPa 0,0 l/m 2 min 0 min 615 W/m 22,5 km/h (4 Bft) 95,74 %
01.05.2020 12:30 14,3 C 17,2 C 15,6 C 68 % 1000,4 hPa 0,0 l/m 2 min 0 min 710 W/m 16,1 km/h (3 Bft) 97,87 %
01.05.2020 12:32 14,3 C 16,7 C 15,6 C 68 % 1000,4 hPa 0,0 l/m 2 min 0 min 453 W/m 16,1 km/h (3 Bft) 97,87 %
01.05.2020 12:34 14,3 C 15,6 C 15,0 C 67 % 1000,4 hPa 0,0 l/m 2 min 0 min 412 W/m 16,1 km/h (3 Bft) 97,87 %
01.05.2020 12:36 14,3 C 15,0 C 14,4 C 67 % 1000,4 hPa 0,0 l/m 0 min 0 min 282 W/m 19,3 km/h (3 Bft) 97,87 %
01.05.2020 12:38 14,3 C 14,4 C 14,4 C 67 % 1000,3 hPa 0,0 l/m 0 min 0 min 283 W/m 9,7 km/h (2 Bft) 100,00 %
01.05.2020 12:40 14,3 C 14,4 C 14,4 C 67 % 1000,3 hPa 0,0 l/m 0 min 0 min 201 W/m 12,9 km/h (3 Bft) 100,00 %
01.05.2020 12:42 14,3 C 13,9 C 13,9 C 67 % 1000,3 hPa 0,0 l/m 0 min 0 min 174 W/m 12,9 km/h (3 Bft) 100,00 %
01.05.2020 12:44 14,3 C 13,9 C 13,3 C 66 % 1000,3 hPa 0,0 l/m 0 min 0 min 207 W/m 12,9 km/h (3 Bft) 100,00 %
01.05.2020 12:46 14,3 C 14,4 C 13,9 C 67 % 1000,3 hPa 0,0 l/m 0 min 0 min 273 W/m 6,4 km/h (2 Bft) 97,87 %
01.05.2020 12:48 14,3 C 14,4 C 13,9 C 68 % 1000,2 hPa 0,0 l/m 0 min 0 min 340 W/m 16,1 km/h (3 Bft) 100,00 %
01.05.2020 12:50 14,3 C 16,7 C 15,0 C 68 % 1000,3 hPa 0,0 l/m 0 min 0 min 366 W/m 12,9 km/h (3 Bft) 100,00 %
01.05.2020 12:52 14,3 C 15,6 C 15,0 C 68 % 1000,4 hPa 0,0 l/m 0 min 0 min 337 W/m 29,0 km/h (5 Bft) 100,00 %
01.05.2020 12:54 14,3 C 15,0 C 14,4 C 67 % 1000,3 hPa 0,0 l/m 0 min 0 min 305 W/m 12,9 km/h (3 Bft) 100,00 %
01.05.2020 12:56 14,3 C 15,6 C 14,4 C 65 % 1000,3 hPa 0,0 l/m 0 min 0 min 340 W/m 22,5 km/h (4 Bft) 100,00 %
01.05.2020 12:58 14,3 C 17,8 C 15,6 C 66 % 1000,4 hPa 0,0 l/m 0 min 0 min 346 W/m 19,3 km/h (3 Bft) 100,00 %
01.05.2020 13:00 14,3 C 17,8 C 16,1 C 66 % 1000,3 hPa 0,0 l/m 0 min 0 min 365 W/m 16,1 km/h (3 Bft) 100,00 %
01.05.2020 13:02 14,4 C 16,1 C 15,6 C 65 % 1000,3 hPa 0,0 l/m 0 min 0 min 336 W/m 25,7 km/h (4 Bft) 97,96 %
01.05.2020 13:04 14,4 C 15,0 C 15,0 C 65 % 1000,3 hPa 0,0 l/m 0 min 0 min 281 W/m 22,5 km/h (4 Bft) 100,00 %
01.05.2020 13:06 14,4 C 14,4 C 14,4 C 63 % 1000,4 hPa 0,0 l/m 0 min 0 min 306 W/m 38,6 km/h (5 Bft) 100,00 %
01.05.2020 13:08 14,3 C 14,4 C 14,4 C 63 % 1000,3 hPa 0,0 l/m 0 min 0 min 339 W/m 32,2 km/h (5 Bft) 100,00 %
01.05.2020 13:10 14,3 C 15,0 C 15,0 C 64 % 1000,3 hPa 0,0 l/m 2 min 0 min 414 W/m 12,9 km/h (3 Bft) 97,87 %
01.05.2020 13:12 14,3 C 15,6 C 15,0 C 66 % 1000,3 hPa 0,0 l/m 2 min 0 min 472 W/m 16,1 km/h (3 Bft) 100,00 %
01.05.2020 13:14 14,3 C 16,1 C 15,6 C 67 % 1000,3 hPa 0,0 l/m 2 min 0 min 410 W/m 12,9 km/h (3 Bft) 100,00 %
01.05.2020 13:16 14,4 C 16,1 C 15,6 C 67 % 1000,2 hPa 0,0 l/m 0 min 0 min 383 W/m 19,3 km/h (3 Bft) 97,87 %
01.05.2020 13:18 14,4 C 15,6 C 15,0 C 66 % 1000,2 hPa 0,0 l/m 0 min 0 min 320 W/m 19,3 km/h (3 Bft) 100,00 %
01.05.2020 13:20 14,4 C 15,6 C 15,0 C 65 % 1000,3 hPa 0,0 l/m 0 min 0 min 353 W/m 16,1 km/h (3 Bft) 100,00 %
01.05.2020 13:22 14,4 C 16,1 C 15,0 C 66 % 1000,3 hPa 0,0 l/m 2 min 0 min 436 W/m 12,9 km/h (3 Bft) 100,00 %
01.05.2020 13:24 14,4 C 17,2 C 17,2 C 66 % 1000,2 hPa 0,0 l/m 2 min 0 min 439 W/m 22,5 km/h (4 Bft) 100,00 %
01.05.2020 13:26 14,6 C 17,2 C 17,8 C 66 % 1000,2 hPa 0,0 l/m 2 min 0 min 1093 W/m 12,9 km/h (3 Bft) 97,87 %
01.05.2020 13:28 14,6 C 16,1 C 16,1 C 65 % 1000,3 hPa 0,0 l/m 0 min 0 min 307 W/m 22,5 km/h (4 Bft) 100,00 %
01.05.2020 13:30 14,6 C 14,4 C 15,0 C 64 % 1000,3 hPa 0,0 l/m 0 min 0 min 286 W/m 35,4 km/h (5 Bft) 100,00 %
01.05.2020 13:32 14,6 C 14,4 C 14,4 C 64 % 1000,2 hPa 0,0 l/m 0 min 0 min 266 W/m 25,7 km/h (4 Bft) 100,00 %
01.05.2020 13:34 14,6 C 15,0 C 15,0 C 65 % 1000,2 hPa 0,0 l/m 0 min 0 min 301 W/m 6,4 km/h (2 Bft) 100,00 %
01.05.2020 13:36 14,6 C 15,0 C 15,0 C 65 % 1000,3 hPa 0,0 l/m 0 min 0 min 311 W/m 22,5 km/h (4 Bft) 100,00 %
01.05.2020 13:38 14,5 C 14,4 C 14,4 C 65 % 1000,3 hPa 0,0 l/m 0 min 0 min 234 W/m 19,3 km/h (3 Bft) 100,00 %
01.05.2020 13:40 14,4 C 13,9 C 13,9 C 64 % 1000,3 hPa 0,0 l/m 0 min 0 min 193 W/m 45,1 km/h (6 Bft) 100,00 %
01.05.2020 13:42 14,3 C 13,9 C 13,9 C 64 % 1000,2 hPa 0,0 l/m 0 min 0 min 184 W/m 32,2 km/h (5 Bft) 100,00 %
01.05.2020 13:44 14,3 C 13,9 C 13,9 C 65 % 1000,2 hPa 0,0 l/m 0 min 0 min 239 W/m 25,7 km/h (4 Bft) 100,00 %
01.05.2020 13:46 14,3 C 13,9 C 13,9 C 64 % 1000,2 hPa 0,0 l/m 0 min 0 min 298 W/m 22,5 km/h (4 Bft) 100,00 %
01.05.2020 13:48 14,3 C 14,4 C 13,9 C 65 % 1000,2 hPa 0,0 l/m 0 min 0 min 259 W/m 25,7 km/h (4 Bft) 100,00 %
01.05.2020 13:50 14,3 C 13,9 C 13,9 C 65 % 1000,2 hPa 0,0 l/m 0 min 0 min 239 W/m 19,3 km/h (3 Bft) 100,00 %
01.05.2020 13:52 14,2 C 13,9 C 13,9 C 65 % 1000,2 hPa 0,0 l/m 0 min 0 min 198 W/m 19,3 km/h (3 Bft) 100,00 %
01.05.2020 13:54 14,2 C 13,9 C 13,3 C 65 % 1000,2 hPa 0,0 l/m 0 min 0 min 173 W/m 22,5 km/h (4 Bft) 100,00 %
01.05.2020 13:56 14,1 C 13,3 C 13,3 C 65 % 1000,2 hPa 0,0 l/m 0 min 0 min 210 W/m 32,2 km/h (5 Bft) 100,00 %
01.05.2020 13:58 14,0 C 13,9 C 13,3 C 65 % 1000,2 hPa 0,0 l/m 0 min 0 min 273 W/m 19,3 km/h (3 Bft) 97,87 %
01.05.2020 14:00 14,0 C 14,4 C 13,9 C 65 % 1000,2 hPa 0,0 l/m 0 min 0 min 302 W/m 12,9 km/h (3 Bft) 100,00 %
01.05.2020 14:02 14,0 C 14,4 C 13,9 C 65 % 1000,2 hPa 0,0 l/m 0 min 0 min 324 W/m 25,7 km/h (4 Bft) 97,67 %
01.05.2020 14:04 14,0 C 16,1 C 15,0 C 66 % 1000,2 hPa 0,0 l/m 2 min 0 min 556 W/m 6,4 km/h (2 Bft) 100,00 %
01.05.2020 14:06 14,1 C 18,9 C 18,9 C 67 % 1000,1 hPa 0,0 l/m 2 min 0 min 629 W/m 19,3 km/h (3 Bft) 97,87 %
01.05.2020 14:08 14,2 C 18,3 C 18,9 C 68 % 1000,2 hPa 0,0 l/m 2 min 0 min 620 W/m 25,7 km/h (4 Bft) 97,87 %
01.05.2020 14:10 14,3 C 19,4 C 20,0 C 68 % 1000,0 hPa 0,0 l/m 2 min 0 min 563 W/m 12,9 km/h (3 Bft) 97,87 %
01.05.2020 14:12 14,4 C 18,9 C 18,9 C 68 % 1000,1 hPa 0,0 l/m 2 min 0 min 574 W/m 32,2 km/h (5 Bft) 97,87 %
01.05.2020 14:14 14,6 C 18,3 C 18,3 C 66 % 1000,1 hPa 0,0 l/m 2 min 0 min 667 W/m 29,0 km/h (5 Bft) 97,87 %
01.05.2020 14:16 14,7 C 17,8 C 18,3 C 66 % 1000,0 hPa 0,0 l/m 2 min 0 min 970 W/m 19,3 km/h (3 Bft) 97,92 %
01.05.2020 14:18 14,8 C 18,3 C 18,3 C 66 % 1000,0 hPa 0,0 l/m 0 min 0 min 381 W/m 29,0 km/h (5 Bft) 95,74 %
01.05.2020 14:20 15,0 C 20,0 C 20,0 C 66 % 1000,0 hPa 0,0 l/m 2 min 0 min 991 W/m 16,1 km/h (3 Bft) 97,92 %
01.05.2020 14:22 15,2 C 20,0 C 21,1 C 66 % 1000,0 hPa 0,0 l/m 2 min 0 min 992 W/m 16,1 km/h (3 Bft) 97,87 %
01.05.2020 14:24 15,3 C 19,4 C 20,6 C 65 % 1000,1 hPa 0,0 l/m 2 min 0 min 977 W/m 35,4 km/h (5 Bft) 97,87 %
01.05.2020 14:26 15,4 C 18,9 C 18,3 C 63 % 1000,1 hPa 0,0 l/m 2 min 0 min 1004 W/m 25,7 km/h (4 Bft) 95,74 %
01.05.2020 14:28 15,6 C 18,9 C 17,8 C 61 % 1000,0 hPa 0,0 l/m 2 min 0 min 1049 W/m 25,7 km/h (4 Bft) 97,87 %
01.05.2020 14:30 15,6 C 20,0 C 17,8 C 62 % 999,9 hPa 0,0 l/m 2 min 0 min 795 W/m 25,7 km/h (4 Bft) 97,37 %
01.05.2020 14:32 15,7 C 19,4 C 17,2 C 62 % 1000,0 hPa 0,0 l/m 2 min 0 min 1033 W/m 38,6 km/h (5 Bft) 97,87 %
01.05.2020 14:34 15,8 C 18,9 C 17,2 C 62 % 1000,0 hPa 0,0 l/m 2 min 0 min 1065 W/m 22,5 km/h (4 Bft) 97,87 %
01.05.2020 14:36 15,9 C 17,8 C 16,7 C 60 % 1000,0 hPa 0,0 l/m 2 min 0 min 527 W/m 32,2 km/h (5 Bft) 97,92 %
01.05.2020 14:38 15,9 C 18,9 C 16,7 C 61 % 999,9 hPa 0,0 l/m 2 min 0 min 413 W/m 19,3 km/h (3 Bft) 95,74 %
01.05.2020 14:40 15,9 C 18,3 C 17,2 C 63 % 999,9 hPa 0,0 l/m 2 min 0 min 413 W/m 12,9 km/h (3 Bft) 100,00 %
01.05.2020 14:42 15,9 C 17,2 C 16,7 C 63 % 1000,0 hPa 0,0 l/m 2 min 0 min 408 W/m 29,0 km/h (5 Bft) 95,74 %
01.05.2020 14:44 15,9 C 15,6 C 15,6 C 61 % 1000,0 hPa 0,0 l/m 0 min 0 min 357 W/m 41,8 km/h (6 Bft) 97,87 %
01.05.2020 14:46 15,8 C 15,6 C 15,6 C 61 % 1000,0 hPa 0,0 l/m 0 min 0 min 278 W/m 29,0 km/h (5 Bft) 93,75 %
01.05.2020 14:48 15,7 C 15,6 C 15,6 C 61 % 1000,0 hPa 0,0 l/m 0 min 0 min 269 W/m 29,0 km/h (5 Bft) 97,87 %
01.05.2020 14:50 15,6 C 15,6 C 15,0 C 62 % 999,9 hPa 0,0 l/m 0 min 0 min 260 W/m 22,5 km/h (4 Bft) 97,92 %
01.05.2020 14:52 15,5 C 15,0 C 15,0 C 63 % 1000,0 hPa 0,0 l/m 0 min 0 min 228 W/m 22,5 km/h (4 Bft) 95,65 %
01.05.2020 14:54 15,4 C 15,0 C 15,0 C 63 % 1000,1 hPa 0,0 l/m 0 min 0 min 220 W/m 22,5 km/h (4 Bft) 97,92 %
01.05.2020 14:56 15,3 C 14,4 C 14,4 C 63 % 1000,0 hPa 0,0 l/m 0 min 0 min 197 W/m 16,1 km/h (3 Bft) 93,75 %
01.05.2020 14:58 15,2 C 14,4 C 14,4 C 64 % 1000,0 hPa 0,0 l/m 0 min 0 min 180 W/m 19,3 km/h (3 Bft) 95,74 %
01.05.2020 15:00 15,1 C 14,4 C 14,4 C 64 % 1000,0 hPa 0,0 l/m 0 min 0 min 174 W/m 35,4 km/h (5 Bft) 97,87 %
01.05.2020 15:02 15,0 C 13,9 C 13,9 C 65 % 1000,2 hPa 0,0 l/m 0 min 0 min 177 W/m 22,5 km/h (4 Bft) 95,74 %
01.05.2020 15:04 14,9 C 13,9 C 13,9 C 67 % 1000,2 hPa 0,0 l/m 0 min 0 min 235 W/m 25,7 km/h (4 Bft) 97,87 %
01.05.2020 15:06 14,8 C 15,6 C 13,9 C 68 % 1000,2 hPa 0,0 l/m 0 min 0 min 287 W/m 22,5 km/h (4 Bft) 93,62 %
01.05.2020 15:08 14,7 C 16,7 C 15,0 C 69 % 1000,2 hPa 0,0 l/m 2 min 0 min 544 W/m 19,3 km/h (3 Bft) 97,56 %
01.05.2020 15:10 14,7 C 17,8 C 15,0 C 69 % 1000,2 hPa 0,0 l/m 2 min 0 min 708 W/m 16,1 km/h (3 Bft) 97,87 %
01.05.2020 15:12 14,8 C 19,4 C 16,1 C 70 % 1000,2 hPa 0,0 l/m 2 min 0 min 757 W/m 16,1 km/h (3 Bft) 97,92 %
01.05.2020 15:14 14,9 C 17,2 C 15,6 C 69 % 1000,3 hPa 0,0 l/m 2 min 0 min 646 W/m 19,3 km/h (3 Bft) 97,87 %
01.05.2020 15:16 14,9 C 16,1 C 15,0 C 67 % 1000,3 hPa 0,0 l/m 0 min 0 min 241 W/m 16,1 km/h (3 Bft) 95,74 %
01.05.2020 15:18 14,9 C 15,6 C 14,4 C 66 % 1000,3 hPa 0,0 l/m 0 min 0 min 241 W/m 19,3 km/h (3 Bft) 93,62 %
01.05.2020 15:20 14,8 C 15,0 C 14,4 C 66 % 1000,3 hPa 0,0 l/m 0 min 0 min 343 W/m 29,0 km/h (5 Bft) 95,83 %
01.05.2020 15:22 14,8 C 17,8 C 15,0 C 67 % 1000,3 hPa 0,0 l/m 2 min 0 min 438 W/m 16,1 km/h (3 Bft) 91,67 %
01.05.2020 15:24 14,8 C 16,7 C 15,0 C 68 % 1000,3 hPa 0,0 l/m 2 min 0 min 429 W/m 25,7 km/h (4 Bft) 95,74 %
01.05.2020 15:26 14,8 C 15,6 C 15,0 C 67 % 1000,3 hPa 0,0 l/m 0 min 0 min 298 W/m 25,7 km/h (4 Bft) 93,75 %
01.05.2020 15:28 14,8 C 15,0 C 14,4 C 65 % 1000,3 hPa 0,0 l/m 0 min 0 min 338 W/m 32,2 km/h (5 Bft) 95,65 %
01.05.2020 15:30 14,7 C 15,0 C 14,4 C 65 % 1000,3 hPa 0,0 l/m 2 min 0 min 418 W/m 35,4 km/h (5 Bft) 95,83 %
01.05.2020 15:32 14,6 C 16,1 C 14,4 C 65 % 1000,2 hPa 0,0 l/m 2 min 0 min 518 W/m 35,4 km/h (5 Bft) 95,65 %
01.05.2020 15:34 14,6 C 17,2 C 14,4 C 65 % 1000,2 hPa 0,0 l/m 2 min 0 min 883 W/m 32,2 km/h (5 Bft) 97,87 %
01.05.2020 15:36 14,6 C 17,2 C 15,0 C 65 % 1000,2 hPa 0,0 l/m 2 min 0 min 899 W/m 25,7 km/h (4 Bft) 97,87 %
01.05.2020 15:38 14,6 C 18,3 C 15,0 C 66 % 1000,2 hPa 0,0 l/m 2 min 0 min 863 W/m 19,3 km/h (3 Bft) 97,87 %
01.05.2020 15:40 14,6 C 17,8 C 15,0 C 66 % 1000,2 hPa 0,0 l/m 2 min 0 min 841 W/m 29,0 km/h (5 Bft) 95,74 %
01.05.2020 15:42 14,7 C 18,3 C 15,0 C 66 % 1000,2 hPa 0,0 l/m 2 min 0 min 830 W/m 25,7 km/h (4 Bft) 97,87 %
01.05.2020 15:44 14,7 C 18,3 C 15,0 C 66 % 1000,1 hPa 0,0 l/m 2 min 0 min 822 W/m 19,3 km/h (3 Bft) 97,87 %
01.05.2020 15:46 14,8 C 18,3 C 15,0 C 66 % 1000,1 hPa 0,0 l/m 2 min 0 min 814 W/m 25,7 km/h (4 Bft) 95,65 %
01.05.2020 15:48 14,9 C 17,8 C 15,0 C 66 % 1000,1 hPa 0,0 l/m 2 min 0 min 825 W/m 22,5 km/h (4 Bft) 97,87 %
01.05.2020 15:50 14,9 C 18,9 C 15,0 C 66 % 1000,1 hPa 0,0 l/m 2 min 0 min 809 W/m 16,1 km/h (3 Bft) 97,87 %
01.05.2020 15:52 15,0 C 19,4 C 15,0 C 67 % 1000,1 hPa 0,0 l/m 2 min 0 min 796 W/m 12,9 km/h (3 Bft) 74,47 %
01.05.2020 15:54 15,2 C 18,9 C 15,0 C 67 % 1000,1 hPa 0,0 l/m 2 min 0 min 795 W/m 29,0 km/h (5 Bft) 78,72 %
01.05.2020 15:56 15,2 C 18,9 C 15,6 C 66 % 1000,0 hPa 0,0 l/m 2 min 0 min 791 W/m 6,4 km/h (2 Bft) 97,83 %
01.05.2020 15:58 15,3 C 19,4 C 15,6 C 67 % 1000,0 hPa 0,0 l/m 2 min 0 min 793 W/m 16,1 km/h (3 Bft) 97,73 %
01.05.2020 16:00 15,4 C 19,4 C 15,6 C 67 % 1000,1 hPa 0,0 l/m 2 min 0 min 794 W/m 22,5 km/h (4 Bft) 97,92 %
01.05.2020 16:02 15,5 C 18,9 C 15,6 C 66 % 1000,0 hPa 0,0 l/m 2 min 0 min 801 W/m 22,5 km/h (4 Bft) 97,96 %
01.05.2020 16:04 15,6 C 18,9 C 15,6 C 66 % 1000,0 hPa 0,0 l/m 2 min 0 min 815 W/m 22,5 km/h (4 Bft) 97,87 %
01.05.2020 16:06 15,7 C 20,0 C 16,1 C 67 % 1000,0 hPa 0,0 l/m 2 min 0 min 872 W/m 9,7 km/h (2 Bft) 97,87 %
01.05.2020 16:08 15,8 C 18,3 C 15,6 C 65 % 1000,1 hPa 0,0 l/m 2 min 0 min 860 W/m 32,2 km/h (5 Bft) 97,83 %
01.05.2020 16:10 15,9 C 18,9 C 16,1 C 65 % 1000,0 hPa 0,0 l/m 2 min 0 min 870 W/m 25,7 km/h (4 Bft) 97,87 %
01.05.2020 16:12 15,9 C 18,3 C 15,6 C 65 % 1000,0 hPa 0,0 l/m 2 min 0 min 765 W/m 19,3 km/h (3 Bft) 97,87 %
01.05.2020 16:14 15,9 C 16,1 C 15,6 C 64 % 1000,1 hPa 0,0 l/m 0 min 0 min 311 W/m 19,3 km/h (3 Bft) 97,87 %
01.05.2020 16:16 15,9 C 15,6 C 15,0 C 65 % 1000,1 hPa 0,0 l/m 0 min 0 min 109 W/m 16,1 km/h (3 Bft) 95,12 %
01.05.2020 16:18 15,9 C 15,0 C 14,4 C 66 % 1000,1 hPa 0,0 l/m 0 min 0 min 100 W/m 25,7 km/h (4 Bft) 93,62 %
01.05.2020 16:20 15,8 C 14,4 C 13,9 C 66 % 1000,0 hPa 0,0 l/m 0 min 2 min 107 W/m 22,5 km/h (4 Bft) 93,75 %
01.05.2020 16:22 15,8 C 14,4 C 13,9 C 67 % 1000,1 hPa 0,0 l/m 0 min 2 min 155 W/m 9,7 km/h (2 Bft) 95,83 %
01.05.2020 16:24 15,8 C 14,4 C 13,9 C 67 % 1000,1 hPa 0,0 l/m 0 min 2 min 279 W/m 9,7 km/h (2 Bft) 95,74 %
01.05.2020 16:26 15,7 C 14,4 C 14,4 C 69 % 1000,1 hPa 0,0 l/m 0 min 0 min 209 W/m 12,9 km/h (3 Bft) 95,65 %
01.05.2020 16:28 15,7 C 14,4 C 14,4 C 67 % 1000,1 hPa 0,0 l/m 0 min 0 min 160 W/m 29,0 km/h (5 Bft) 97,87 %
01.05.2020 16:30 15,6 C 15,0 C 14,4 C 68 % 1000,3 hPa 0,0 l/m 0 min 0 min 141 W/m 32,2 km/h (5 Bft) 97,87 %
01.05.2020 16:32 15,4 C 14,4 C 13,9 C 67 % 1000,4 hPa 0,0 l/m 0 min 0 min 118 W/m 25,7 km/h (4 Bft) 97,87 %
01.05.2020 16:34 15,2 C 13,9 C 13,3 C 67 % 1000,4 hPa 0,0 l/m 0 min 0 min 147 W/m 35,4 km/h (5 Bft) 97,87 %
01.05.2020 16:36 15,0 C 13,3 C 13,3 C 68 % 1000,3 hPa 0,0 l/m 0 min 0 min 172 W/m 19,3 km/h (3 Bft) 97,87 %
01.05.2020 16:38 14,8 C 13,9 C 13,3 C 69 % 1000,3 hPa 0,0 l/m 0 min 0 min 183 W/m 22,5 km/h (4 Bft) 95,74 %
01.05.2020 16:40 14,6 C 13,3 C 12,8 C 69 % 1000,4 hPa 0,0 l/m 0 min 0 min 168 W/m 25,7 km/h (4 Bft) 97,87 %
01.05.2020 16:42 14,4 C 13,3 C 12,8 C 69 % 1000,3 hPa 0,0 l/m 0 min 0 min 170 W/m 16,1 km/h (3 Bft) 97,87 %
01.05.2020 16:44 14,3 C 13,9 C 13,3 C 70 % 1000,3 hPa 0,0 l/m 0 min 0 min 174 W/m 9,7 km/h (2 Bft) 97,87 %
01.05.2020 16:46 14,3 C 13,9 C 13,3 C 71 % 1000,4 hPa 0,0 l/m 0 min 0 min 223 W/m 19,3 km/h (3 Bft) 95,83 %
01.05.2020 16:48 14,2 C 13,9 C 13,3 C 72 % 1000,3 hPa 0,0 l/m 0 min 0 min 194 W/m 12,9 km/h (3 Bft) 97,87 %
01.05.2020 16:50 14,1 C 13,9 C 13,3 C 72 % 1000,3 hPa 0,0 l/m 0 min 0 min 203 W/m 16,1 km/h (3 Bft) 97,92 %
01.05.2020 16:52 14,1 C 13,9 C 13,3 C 72 % 1000,3 hPa 0,0 l/m 0 min 0 min 221 W/m 12,9 km/h (3 Bft) 95,74 %
01.05.2020 16:54 14,1 C 16,1 C 13,9 C 72 % 1000,3 hPa 0,0 l/m 0 min 0 min 249 W/m 12,9 km/h (3 Bft) 97,83 %
01.05.2020 16:56 14,1 C 17,8 C 14,4 C 73 % 1000,3 hPa 0,0 l/m 2 min 0 min 672 W/m 16,1 km/h (3 Bft) 97,87 %
01.05.2020 16:58 14,3 C 18,9 C 15,0 C 73 % 1000,2 hPa 0,0 l/m 2 min 0 min 755 W/m 16,1 km/h (3 Bft) 100,00 %
01.05.2020 17:00 14,3 C 18,3 C 15,6 C 74 % 1000,2 hPa 0,0 l/m 2 min 0 min 724 W/m 9,7 km/h (2 Bft) 100,00 %
01.05.2020 17:02 14,4 C 18,3 C 16,1 C 73 % 1000,2 hPa 0,0 l/m 0 min 0 min 252 W/m 9,7 km/h (2 Bft) 100,00 %
01.05.2020 17:04 14,5 C 19,4 C 17,8 C 73 % 1000,2 hPa 0,0 l/m 2 min 0 min 676 W/m 12,9 km/h (3 Bft) 100,00 %
01.05.2020 17:06 14,7 C 20,0 C 17,2 C 73 % 1000,2 hPa 0,0 l/m 2 min 0 min 708 W/m 9,7 km/h (2 Bft) 97,83 %
01.05.2020 17:08 14,8 C 18,9 C 16,7 C 73 % 1000,2 hPa 0,0 l/m 2 min 0 min 708 W/m 3,2 km/h (1 Bft) 100,00 %
01.05.2020 17:10 14,9 C 17,2 C 15,6 C 72 % 1000,3 hPa 0,0 l/m 2 min 0 min 641 W/m 6,4 km/h (2 Bft) 100,00 %
01.05.2020 17:12 14,9 C 17,2 C 15,0 C 70 % 1000,3 hPa 0,0 l/m 0 min 0 min 252 W/m 12,9 km/h (3 Bft) 100,00 %
01.05.2020 17:14 15,0 C 18,3 C 15,0 C 71 % 1000,3 hPa 0,0 l/m 2 min 0 min 306 W/m 3,2 km/h (1 Bft) 100,00 %
01.05.2020 17:16 15,1 C 16,7 C 15,0 C 71 % 1000,2 hPa 0,0 l/m 0 min 0 min 223 W/m 6,4 km/h (2 Bft) 100,00 %
01.05.2020 17:18 15,1 C 17,2 C 15,0 C 71 % 1000,3 hPa 0,0 l/m 0 min 0 min 185 W/m 0,0 km/h (0 Bft) 97,83 %
01.05.2020 17:20 15,2 C 17,2 C 15,0 C 72 % 1000,3 hPa 0,0 l/m 2 min 0 min 302 W/m 6,4 km/h (2 Bft) 100,00 %
01.05.2020 17:22 15,3 C 16,7 C 15,0 C 71 % 1000,3 hPa 0,0 l/m 2 min 0 min 305 W/m 3,2 km/h (1 Bft) 100,00 %
01.05.2020 17:24 15,3 C 16,1 C 15,0 C 70 % 1000,3 hPa 0,0 l/m 0 min 0 min 182 W/m 6,4 km/h (2 Bft) 100,00 %
01.05.2020 17:26 15,3 C 16,1 C 15,0 C 70 % 1000,3 hPa 0,0 l/m 0 min 0 min 202 W/m 0,0 km/h (0 Bft) 100,00 %
01.05.2020 17:28 15,4 C 16,1 C 15,0 C 70 % 1000,3 hPa 0,0 l/m 0 min 0 min 202 W/m 9,7 km/h (2 Bft) 97,92 %
01.05.2020 17:30 15,4 C 16,1 C 15,0 C 70 % 1000,3 hPa 0,0 l/m 0 min 0 min 182 W/m 6,4 km/h (2 Bft) 97,92 %
01.05.2020 17:32 15,4 C 16,1 C 15,0 C 70 % 1000,4 hPa 0,0 l/m 0 min 0 min 182 W/m 9,7 km/h (2 Bft) 97,87 %
01.05.2020 17:34 15,4 C 16,7 C 15,0 C 70 % 1000,3 hPa 0,0 l/m 2 min 0 min 254 W/m 12,9 km/h (3 Bft) 97,87 %
01.05.2020 17:36 15,4 C 16,1 C 15,0 C 68 % 1000,4 hPa 0,0 l/m 0 min 0 min 240 W/m 12,9 km/h (3 Bft) 97,87 %
01.05.2020 17:38 15,4 C 15,6 C 14,4 C 68 % 1000,3 hPa 0,0 l/m 0 min 0 min 170 W/m 16,1 km/h (3 Bft) 97,92 %
01.05.2020 17:40 15,4 C 15,0 C 14,4 C 68 % 1000,4 hPa 0,0 l/m 0 min 0 min 142 W/m 19,3 km/h (3 Bft) 97,83 %
01.05.2020 17:42 15,3 C 14,4 C 13,9 C 68 % 1000,4 hPa 0,0 l/m 0 min 0 min 150 W/m 19,3 km/h (3 Bft) 97,87 %
01.05.2020 17:44 15,2 C 14,4 C 13,9 C 69 % 1000,4 hPa 0,0 l/m 0 min 0 min 149 W/m 19,3 km/h (3 Bft) 97,87 %
01.05.2020 17:46 15,2 C 14,4 C 13,9 C 69 % 1000,5 hPa 0,0 l/m 0 min 0 min 164 W/m 19,3 km/h (3 Bft) 97,87 %
01.05.2020 17:48 15,1 C 15,0 C 13,9 C 70 % 1000,5 hPa 0,0 l/m 0 min 0 min 208 W/m 16,1 km/h (3 Bft) 97,87 %
01.05.2020 17:50 15,1 C 17,2 C 15,0 C 70 % 1000,5 hPa 0,0 l/m 2 min 0 min 520 W/m 9,7 km/h (2 Bft) 97,87 %
01.05.2020 17:52 15,1 C 18,3 C 15,0 C 70 % 1000,4 hPa 0,0 l/m 2 min 0 min 462 W/m 19,3 km/h (3 Bft) 97,83 %
01.05.2020 17:54 15,2 C 18,9 C 15,6 C 70 % 1000,6 hPa 0,0 l/m 2 min 0 min 610 W/m 19,3 km/h (3 Bft) 97,87 %
01.05.2020 17:56 15,3 C 17,8 C 15,6 C 70 % 1000,6 hPa 0,0 l/m 2 min 0 min 584 W/m 9,7 km/h (2 Bft) 97,87 %
01.05.2020 17:58 15,3 C 16,1 C 15,0 C 68 % 1000,7 hPa 0,0 l/m 2 min 0 min 584 W/m 16,1 km/h (3 Bft) 97,73 %
01.05.2020 18:00 15,3 C 16,1 C 14,4 C 67 % 1000,7 hPa 0,0 l/m 2 min 0 min 310 W/m 9,7 km/h (2 Bft) 97,87 %
01.05.2020 18:02 15,3 C 16,1 C 14,4 C 68 % 1000,6 hPa 0,0 l/m 2 min 0 min 258 W/m 9,7 km/h (2 Bft) 97,83 %
01.05.2020 18:04 15,3 C 16,7 C 14,4 C 67 % 1000,7 hPa 0,0 l/m 2 min 0 min 308 W/m 12,9 km/h (3 Bft) 97,87 %
01.05.2020 18:08 15,4 C 16,7 C 14,4 C 69 % 1000,7 hPa 0,0 l/m 4 min 0 min 350 W/m 19,3 km/h (3 Bft) 97,92 %
01.05.2020 18:10 15,4 C 16,1 C 14,4 C 69 % 1000,7 hPa 0,0 l/m 2 min 0 min 220 W/m 16,1 km/h (3 Bft) 97,83 %
01.05.2020 18:12 15,4 C 16,1 C 13,9 C 69 % 1000,7 hPa 0,0 l/m 2 min 0 min 244 W/m 12,9 km/h (3 Bft) 95,83 %
01.05.2020 18:14 15,4 C 16,1 C 13,9 C 69 % 1000,7 hPa 0,0 l/m 2 min 0 min 279 W/m 19,3 km/h (3 Bft) 100,00 %
01.05.2020 18:16 15,4 C 16,7 C 13,9 C 69 % 1000,6 hPa 0,0 l/m 2 min 0 min 314 W/m 9,7 km/h (2 Bft) 97,87 %
01.05.2020 18:18 15,4 C 17,2 C 13,9 C 69 % 1000,7 hPa 0,0 l/m 2 min 0 min 459 W/m 6,4 km/h (2 Bft) 100,00 %
01.05.2020 18:20 15,4 C 17,2 C 13,9 C 69 % 1000,7 hPa 0,0 l/m 2 min 0 min 388 W/m 9,7 km/h (2 Bft) 100,00 %
01.05.2020 18:22 15,4 C 16,7 C 13,9 C 69 % 1000,8 hPa 0,0 l/m 2 min 0 min 308 W/m 3,2 km/h (1 Bft) 100,00 %
01.05.2020 18:24 15,4 C 17,2 C 13,3 C 69 % 1000,8 hPa 0,0 l/m 2 min 0 min 359 W/m 6,4 km/h (2 Bft) 100,00 %
01.05.2020 18:26 15,5 C 17,2 C 13,3 C 69 % 1000,9 hPa 0,0 l/m 2 min 0 min 382 W/m 12,9 km/h (3 Bft) 100,00 %
01.05.2020 18:28 15,6 C 17,2 C 13,9 C 69 % 1000,9 hPa 0,0 l/m 2 min 0 min 386 W/m 9,7 km/h (2 Bft) 100,00 %
01.05.2020 18:30 15,6 C 17,2 C 13,3 C 70 % 1001,0 hPa 0,0 l/m 2 min 0 min 385 W/m 6,4 km/h (2 Bft) 100,00 %
01.05.2020 18:32 15,6 C 17,2 C 13,9 C 70 % 1000,9 hPa 0,0 l/m 2 min 0 min 383 W/m 9,7 km/h (2 Bft) 100,00 %
01.05.2020 18:34 15,6 C 16,7 C 13,3 C 69 % 1001,0 hPa 0,0 l/m 2 min 0 min 382 W/m 19,3 km/h (3 Bft) 100,00 %
01.05.2020 18:36 15,7 C 16,7 C 13,3 C 68 % 1001,0 hPa 0,0 l/m 2 min 0 min 402 W/m 16,1 km/h (3 Bft) 100,00 %
01.05.2020 18:38 15,7 C 16,1 C 13,3 C 68 % 1001,0 hPa 0,0 l/m 2 min 0 min 259 W/m 12,9 km/h (3 Bft) 97,83 %
01.05.2020 18:40 15,7 C 16,1 C 13,3 C 69 % 1001,0 hPa 0,0 l/m 2 min 0 min 233 W/m 6,4 km/h (2 Bft) 100,00 %
01.05.2020 18:42 15,7 C 16,7 C 13,3 C 69 % 1001,0 hPa 0,0 l/m 2 min 0 min 410 W/m 12,9 km/h (3 Bft) 95,74 %
01.05.2020 18:44 15,7 C 16,7 C 13,3 C 69 % 1001,0 hPa 0,0 l/m 2 min 0 min 380 W/m 9,7 km/h (2 Bft) 100,00 %
01.05.2020 18:46 15,7 C 16,1 C 13,3 C 69 % 1001,0 hPa 0,0 l/m 2 min 0 min 345 W/m 6,4 km/h (2 Bft) 97,87 %
01.05.2020 18:48 15,7 C 15,6 C 13,3 C 67 % 1001,1 hPa 0,0 l/m 2 min 0 min 228 W/m 3,2 km/h (1 Bft) 97,87 %
01.05.2020 18:50 15,7 C 15,6 C 12,8 C 67 % 1001,1 hPa 0,0 l/m 2 min 0 min 199 W/m 9,7 km/h (2 Bft) 97,92 %
01.05.2020 18:52 15,6 C 14,4 C 12,8 C 67 % 1001,0 hPa 0,0 l/m 2 min 0 min 170 W/m 3,2 km/h (1 Bft) 97,87 %
01.05.2020 18:54 15,6 C 14,4 C 12,8 C 67 % 1001,0 hPa 0,0 l/m 2 min 0 min 183 W/m 6,4 km/h (2 Bft) 97,87 %
01.05.2020 18:56 15,5 C 14,4 C 12,8 C 67 % 1001,0 hPa 0,0 l/m 0 min 0 min 120 W/m 6,4 km/h (2 Bft) 95,83 %
01.05.2020 18:58 15,4 C 13,9 C 12,8 C 67 % 1001,0 hPa 0,0 l/m 0 min 0 min 86 W/m 3,2 km/h (1 Bft) 95,92 %
01.05.2020 19:00 15,3 C 13,9 C 12,8 C 68 % 1000,9 hPa 0,0 l/m 0 min 0 min 83 W/m 0,0 km/h (0 Bft) 95,74 %
01.05.2020 19:02 15,3 C 13,9 C 12,8 C 68 % 1000,9 hPa 0,0 l/m 0 min 0 min 68 W/m 0,0 km/h (0 Bft) 95,74 %
01.05.2020 19:04 15,2 C 13,3 C 12,8 C 69 % 1001,0 hPa 0,0 l/m 0 min 0 min 61 W/m 3,2 km/h (1 Bft) 95,65 %
01.05.2020 19:06 15,2 C 13,3 C 12,8 C 69 % 1001,0 hPa 0,0 l/m 0 min 0 min 61 W/m 0,0 km/h (0 Bft) 91,49 %
01.05.2020 19:08 15,1 C 13,3 C 12,2 C 69 % 1001,1 hPa 0,0 l/m 0 min 0 min 48 W/m 3,2 km/h (1 Bft) 95,74 %
01.05.2020 19:10 15,0 C 12,8 C 12,2 C 69 % 1001,1 hPa 0,0 l/m 0 min 0 min 34 W/m 6,4 km/h (2 Bft) 97,87 %
01.05.2020 19:12 14,9 C 12,8 C 12,2 C 69 % 1001,2 hPa 0,0 l/m 0 min 0 min 25 W/m 3,2 km/h (1 Bft) 97,56 %
01.05.2020 19:14 14,9 C 12,8 C 12,2 C 68 % 1001,1 hPa 0,0 l/m 0 min 0 min 18 W/m 0,0 km/h (0 Bft) 95,74 %
01.05.2020 19:16 14,8 C 12,8 C 12,2 C 69 % 1001,2 hPa 0,0 l/m 0 min 0 min 14 W/m 0,0 km/h (0 Bft) 93,62 %
01.05.2020 19:18 14,8 C 12,8 C 12,2 C 70 % 1001,2 hPa 0,0 l/m 0 min 0 min 12 W/m 0,0 km/h (0 Bft) 95,83 %
01.05.2020 19:20 14,7 C 12,2 C 11,7 C 70 % 1001,2 hPa 0,0 l/m 0 min 0 min 11 W/m 0,0 km/h (0 Bft) 95,83 %
01.05.2020 19:22 14,7 C 12,2 C 11,7 C 70 % 1001,2 hPa 0,0 l/m 0 min 0 min 9 W/m 0,0 km/h (0 Bft) 95,74 %
01.05.2020 19:24 14,6 C 12,2 C 11,7 C 70 % 1001,2 hPa 0,0 l/m 0 min 0 min 9 W/m 3,2 km/h (1 Bft) 95,74 %
01.05.2020 19:26 14,5 C 12,2 C 11,7 C 70 % 1001,3 hPa 0,0 l/m 0 min 0 min 9 W/m 3,2 km/h (1 Bft) 97,92 %
01.05.2020 19:28 14,4 C 12,2 C 11,7 C 70 % 1001,3 hPa 0,0 l/m 0 min 0 min 8 W/m 0,0 km/h (0 Bft) 93,75 %
01.05.2020 19:30 14,3 C 12,2 C 11,7 C 70 % 1001,4 hPa 0,0 l/m 0 min 2 min 5 W/m 12,9 km/h (3 Bft) 95,74 %
01.05.2020 19:32 14,3 C 11,7 C 12,2 C 69 % 1001,8 hPa 0,0 l/m 0 min 2 min 0 W/m 22,5 km/h (4 Bft) 97,87 %
01.05.2020 19:34 14,1 C 8,9 C 10,0 C 72 % 1001,9 hPa 0,2 l/m 0 min 2 min 0 W/m 32,2 km/h (5 Bft) 95,74 %
01.05.2020 19:36 13,7 C 7,8 C 8,3 C 74 % 1002,1 hPa 0,8 l/m 0 min 2 min 0 W/m 22,5 km/h (4 Bft) 97,83 %
01.05.2020 19:38 13,3 C 7,8 C 8,3 C 75 % 1002,1 hPa 0,6 l/m 0 min 2 min 0 W/m 22,5 km/h (4 Bft) 95,74 %
01.05.2020 19:40 13,0 C 7,8 C 8,3 C 77 % 1002,1 hPa 0,6 l/m 0 min 2 min 0 W/m 16,1 km/h (3 Bft) 97,87 %
01.05.2020 19:42 12,7 C 7,8 C 7,8 C 78 % 1002,1 hPa 0,2 l/m 0 min 2 min 0 W/m 16,1 km/h (3 Bft) 97,87 %
01.05.2020 19:44 12,4 C 7,8 C 7,8 C 79 % 1002,2 hPa 0,4 l/m 0 min 2 min 0 W/m 16,1 km/h (3 Bft) 97,87 %
01.05.2020 19:46 12,1 C 7,8 C 7,8 C 80 % 1002,2 hPa 0,2 l/m 0 min 2 min 0 W/m 12,9 km/h (3 Bft) 97,87 %
01.05.2020 19:48 11,8 C 7,8 C 7,8 C 81 % 1002,2 hPa 0,0 l/m 0 min 2 min 3 W/m 9,7 km/h (2 Bft) 97,56 %
01.05.2020 19:50 11,6 C 7,8 C 8,3 C 82 % 1002,2 hPa 0,2 l/m 0 min 2 min 6 W/m 12,9 km/h (3 Bft) 97,92 %
01.05.2020 19:52 11,3 C 7,8 C 8,3 C 84 % 1002,2 hPa 0,0 l/m 0 min 2 min 7 W/m 9,7 km/h (2 Bft) 97,87 %
01.05.2020 19:54 11,1 C 7,8 C 8,3 C 85 % 1002,2 hPa 0,2 l/m 0 min 2 min 9 W/m 6,4 km/h (2 Bft) 95,74 %
01.05.2020 19:56 10,9 C 7,8 C 7,8 C 85 % 1002,1 hPa 0,2 l/m 0 min 2 min 12 W/m 16,1 km/h (3 Bft) 97,83 %
01.05.2020 19:58 10,7 C 7,8 C 7,8 C 86 % 1002,1 hPa 0,4 l/m 0 min 2 min 19 W/m 16,1 km/h (3 Bft) 98,04 %
01.05.2020 20:00 10,6 C 7,8 C 7,8 C 86 % 1001,9 hPa 0,2 l/m 0 min 2 min 36 W/m 9,7 km/h (2 Bft) 97,87 %
01.05.2020 20:02 10,4 C 7,8 C 7,8 C 87 % 1001,8 hPa 0,2 l/m 0 min 2 min 53 W/m 0,0 km/h (0 Bft) 97,87 %
01.05.2020 20:04 10,3 C 7,8 C 7,8 C 88 % 1001,9 hPa 0,0 l/m 0 min 2 min 57 W/m 3,2 km/h (1 Bft) 97,62 %
01.05.2020 20:06 10,3 C 7,8 C 7,8 C 88 % 1001,8 hPa 0,0 l/m 2 min 0 min 58 W/m 0,0 km/h (0 Bft) 100,00 %
01.05.2020 20:08 10,2 C 7,8 C 7,8 C 88 % 1001,9 hPa 0,0 l/m 2 min 0 min 65 W/m 3,2 km/h (1 Bft) 100,00 %
01.05.2020 20:09 10,2 C 7,8 C 8,3 C 89 % 1001,8 hPa 0,0 l/m 1 min 0 min 73 W/m 0,0 km/h (0 Bft) 100,00 %
01.05.2020 20:12 10,1 C 7,8 C 8,3 C 89 % 1001,8 hPa 0,0 l/m 3 min 0 min 77 W/m 0,0 km/h (0 Bft) 100,00 %
01.05.2020 20:14 10,1 C 7,8 C 7,8 C 89 % 1001,8 hPa 0,0 l/m 2 min 0 min 72 W/m 0,0 km/h (0 Bft) 100,00 %
01.05.2020 20:16 10,1 C 8,3 C 8,3 C 89 % 1001,8 hPa 0,0 l/m 2 min 0 min 59 W/m 0,0 km/h (0 Bft) 100,00 %
01.05.2020 20:18 10,0 C 8,3 C 8,3 C 90 % 1001,8 hPa 0,0 l/m 2 min 0 min 45 W/m 0,0 km/h (0 Bft) 100,00 %
01.05.2020 20:20 10,0 C 8,3 C 7,8 C 89 % 1001,8 hPa 0,0 l/m 0 min 0 min 31 W/m 0,0 km/h (0 Bft) 100,00 %
01.05.2020 20:22 9,9 C 8,3 C 7,8 C 89 % 1001,8 hPa 0,0 l/m 0 min 0 min 20 W/m 0,0 km/h (0 Bft) 100,00 %
01.05.2020 20:24 9,9 C 7,8 C 7,8 C 90 % 1001,9 hPa 0,0 l/m 0 min 0 min 16 W/m 3,2 km/h (1 Bft) 97,87 %
01.05.2020 20:26 9,8 C 7,8 C 7,8 C 90 % 1001,9 hPa 0,0 l/m 0 min 0 min 12 W/m 3,2 km/h (1 Bft) 95,74 %
01.05.2020 20:28 9,8 C 7,8 C 7,8 C 90 % 1001,9 hPa 0,0 l/m 0 min 0 min 10 W/m 3,2 km/h (1 Bft) 97,87 %
01.05.2020 20:30 9,8 C 7,8 C 7,8 C 90 % 1001,8 hPa 0,0 l/m 0 min 0 min 8 W/m 3,2 km/h (1 Bft) 97,83 %
01.05.2020 20:32 9,8 C 7,8 C 7,8 C 90 % 1001,9 hPa 0,0 l/m 0 min 0 min 6 W/m 3,2 km/h (1 Bft) 97,87 %
01.05.2020 20:34 9,7 C 8,3 C 7,8 C 90 % 1001,9 hPa 0,0 l/m 0 min 0 min 2 W/m 3,2 km/h (1 Bft) 97,87 %
01.05.2020 20:36 9,7 C 8,3 C 7,8 C 90 % 1002,0 hPa 0,0 l/m 0 min 0 min 0 W/m 3,2 km/h (1 Bft) 97,87 %
01.05.2020 20:38 9,7 C 8,3 C 7,8 C 91 % 1002,0 hPa 0,0 l/m 0 min 0 min 0 W/m 0,0 km/h (0 Bft) 98,11 %
01.05.2020 20:40 9,7 C 8,3 C 7,8 C 91 % 1002,1 hPa 0,0 l/m 0 min 0 min 0 W/m 0,0 km/h (0 Bft) 97,87 %
01.05.2020 20:42 9,7 C 8,3 C 7,8 C 91 % 1002,2 hPa 0,0 l/m 0 min 2 min 0 W/m 6,4 km/h (2 Bft) 98,00 %
01.05.2020 20:44 9,7 C 8,3 C 7,8 C 91 % 1002,3 hPa 0,0 l/m 0 min 0 min 0 W/m 0,0 km/h (0 Bft) 97,83 %
01.05.2020 20:46 9,6 C 8,3 C 7,8 C 91 % 1002,4 hPa 0,0 l/m 0 min 0 min 0 W/m 6,4 km/h (2 Bft) 95,74 %
01.05.2020 20:48 9,6 C 7,8 C 7,8 C 91 % 1002,4 hPa 0,0 l/m 0 min 2 min 0 W/m 12,9 km/h (3 Bft) 97,87 %
01.05.2020 20:50 9,6 C 7,8 C 7,8 C 92 % 1002,4 hPa 0,0 l/m 0 min 2 min 0 W/m 19,3 km/h (3 Bft) 95,74 %
01.05.2020 20:52 9,6 C 7,8 C 7,8 C 92 % 1002,4 hPa 0,0 l/m 0 min 2 min 0 W/m 9,7 km/h (2 Bft) 100,00 %
01.05.2020 20:54 9,6 C 7,8 C 7,8 C 92 % 1002,4 hPa 0,2 l/m 0 min 2 min 0 W/m 16,1 km/h (3 Bft) 97,83 %
01.05.2020 20:56 9,6 C 7,8 C 7,8 C 92 % 1002,4 hPa 0,0 l/m 0 min 2 min 0 W/m 12,9 km/h (3 Bft) 95,74 %
01.05.2020 20:58 9,5 C 7,8 C 7,8 C 93 % 1002,3 hPa 0,2 l/m 0 min 2 min 0 W/m 12,9 km/h (3 Bft) 97,87 %
01.05.2020 21:00 9,4 C 7,8 C 7,8 C 92 % 1002,3 hPa 0,0 l/m 0 min 2 min 0 W/m 19,3 km/h (3 Bft) 97,87 %
01.05.2020 21:02 9,4 C 7,8 C 7,8 C 93 % 1002,2 hPa 0,0 l/m 0 min 2 min 0 W/m 16,1 km/h (3 Bft) 97,87 %
01.05.2020 21:04 9,4 C 7,8 C 7,2 C 93 % 1002,2 hPa 0,2 l/m 0 min 2 min 0 W/m 12,9 km/h (3 Bft) 97,87 %
01.05.2020 21:06 9,4 C 7,8 C 7,2 C 93 % 1002,1 hPa 0,0 l/m 0 min 2 min 0 W/m 9,7 km/h (2 Bft) 97,83 %
01.05.2020 21:08 9,3 C 7,8 C 7,2 C 93 % 1002,1 hPa 0,0 l/m 0 min 0 min 0 W/m 3,2 km/h (1 Bft) 97,87 %
01.05.2020 21:10 9,3 C 7,8 C 7,2 C 93 % 1002,2 hPa 0,0 l/m 0 min 0 min 0 W/m 3,2 km/h (1 Bft) 97,87 %
01.05.2020 21:12 9,3 C 7,8 C 7,2 C 93 % 1002,1 hPa 0,0 l/m 0 min 0 min 0 W/m 3,2 km/h (1 Bft) 95,74 %
01.05.2020 21:14 9,3 C 7,8 C 7,2 C 93 % 1002,2 hPa 0,0 l/m 0 min 0 min 0 W/m 3,2 km/h (1 Bft) 97,87 %
01.05.2020 21:16 9,3 C 7,8 C 7,2 C 93 % 1002,3 hPa 0,0 l/m 0 min 0 min 0 W/m 16,1 km/h (3 Bft) 97,83 %
01.05.2020 21:18 9,2 C 7,8 C 7,8 C 94 % 1002,3 hPa 0,0 l/m 0 min 0 min 0 W/m 6,4 km/h (2 Bft) 97,87 %
01.05.2020 21:20 9,2 C 7,8 C 7,2 C 94 % 1002,3 hPa 0,0 l/m 0 min 0 min 0 W/m 3,2 km/h (1 Bft) 97,87 %
01.05.2020 21:22 9,2 C 7,8 C 7,2 C 93 % 1002,3 hPa 0,0 l/m 0 min 0 min 0 W/m 3,2 km/h (1 Bft) 95,74 %
01.05.2020 21:24 9,2 C 7,8 C 7,2 C 94 % 1002,4 hPa 0,0 l/m 0 min 0 min 0 W/m 3,2 km/h (1 Bft) 98,11 %
01.05.2020 21:26 9,2 C 7,8 C 7,2 C 94 % 1002,5 hPa 0,0 l/m 0 min 0 min 0 W/m 6,4 km/h (2 Bft) 97,87 %
01.05.2020 21:28 9,2 C 7,8 C 7,2 C 94 % 1002,5 hPa 0,0 l/m 0 min 0 min 0 W/m 6,4 km/h (2 Bft) 97,87 %
01.05.2020 21:30 9,2 C 7,8 C 7,2 C 94 % 1002,6 hPa 0,0 l/m 0 min 0 min 0 W/m 12,9 km/h (3 Bft) 97,87 %
01.05.2020 21:32 9,2 C 7,8 C 7,8 C 94 % 1002,7 hPa 0,0 l/m 0 min 0 min 0 W/m 16,1 km/h (3 Bft) 95,65 %
01.05.2020 21:34 9,2 C 7,8 C 7,8 C 94 % 1002,7 hPa 0,0 l/m 0 min 0 min 0 W/m 6,4 km/h (2 Bft) 95,74 %
01.05.2020 21:36 9,2 C 7,8 C 7,8 C 94 % 1002,7 hPa 0,0 l/m 0 min 0 min 0 W/m 0,0 km/h (0 Bft) 92,00 %
01.05.2020 21:38 9,2 C 7,8 C 7,8 C 94 % 1002,7 hPa 0,0 l/m 0 min 0 min 0 W/m 3,2 km/h (1 Bft) 100,00 %
01.05.2020 21:40 9,2 C 7,8 C 7,8 C 94 % 1002,7 hPa 0,0 l/m 0 min 0 min 0 W/m 3,2 km/h (1 Bft) 97,87 %
01.05.2020 21:42 9,2 C 7,8 C 7,8 C 94 % 1002,8 hPa 0,0 l/m 0 min 0 min 0 W/m 0,0 km/h (0 Bft) 100,00 %
01.05.2020 21:44 9,2 C 7,8 C 7,8 C 94 % 1002,8 hPa 0,0 l/m 0 min 0 min 0 W/m 3,2 km/h (1 Bft) 95,65 %
01.05.2020 21:46 9,2 C 7,8 C 7,8 C 95 % 1002,8 hPa 0,0 l/m 0 min 0 min 0 W/m 3,2 km/h (1 Bft) 95,74 %
01.05.2020 21:48 9,2 C 7,8 C 7,8 C 95 % 1002,8 hPa 0,0 l/m 0 min 2 min 0 W/m 3,2 km/h (1 Bft) 97,87 %
01.05.2020 21:50 9,2 C 7,8 C 7,8 C 95 % 1002,8 hPa 0,0 l/m 0 min 2 min 0 W/m 3,2 km/h (1 Bft) 94,74 %
01.05.2020 21:52 9,2 C 7,8 C 7,8 C 95 % 1002,8 hPa 0,0 l/m 0 min 2 min 0 W/m 6,4 km/h (2 Bft) 93,48 %
01.05.2020 21:54 9,2 C 7,8 C 7,8 C 95 % 1002,8 hPa 0,0 l/m 0 min 2 min 0 W/m 0,0 km/h (0 Bft) 95,74 %
01.05.2020 21:56 9,2 C 7,8 C 7,8 C 95 % 1002,9 hPa 0,0 l/m 0 min 0 min 0 W/m 0,0 km/h (0 Bft) 95,74 %
01.05.2020 21:58 9,2 C 7,8 C 7,8 C 95 % 1002,9 hPa 0,0 l/m 0 min 0 min 0 W/m 0,0 km/h (0 Bft) 96,23 %
01.05.2020 22:00 9,2 C 7,8 C 7,8 C 95 % 1002,9 hPa 0,0 l/m 0 min 0 min 0 W/m 0,0 km/h (0 Bft) 94,00 %
01.05.2020 22:02 9,2 C 7,8 C 7,8 C 95 % 1002,9 hPa 0,0 l/m 0 min 0 min 0 W/m 6,4 km/h (2 Bft) 95,83 %
01.05.2020 22:04 9,2 C 7,8 C 7,8 C 95 % 1003,0 hPa 0,0 l/m 0 min 0 min 0 W/m 3,2 km/h (1 Bft) 93,62 %
01.05.2020 22:06 9,2 C 7,8 C 7,8 C 95 % 1002,9 hPa 0,0 l/m 0 min 0 min 0 W/m 0,0 km/h (0 Bft) 97,22 %
01.05.2020 22:08 9,2 C 7,8 C 7,8 C 95 % 1002,9 hPa 0,0 l/m 0 min 2 min 0 W/m 0,0 km/h (0 Bft) 93,62 %
01.05.2020 22:10 9,2 C 7,8 C 7,8 C 95 % 1002,9 hPa 0,0 l/m 0 min 0 min 0 W/m 3,2 km/h (1 Bft) 95,74 %
01.05.2020 22:12 9,2 C 7,8 C 7,8 C 95 % 1003,0 hPa 0,0 l/m 0 min 2 min 0 W/m 0,0 km/h (0 Bft) 95,74 %
01.05.2020 22:14 9,2 C 7,8 C 7,8 C 95 % 1003,1 hPa 0,0 l/m 0 min 2 min 0 W/m 3,2 km/h (1 Bft) 95,74 %
01.05.2020 22:16 9,2 C 7,8 C 7,8 C 95 % 1003,1 hPa 0,0 l/m 0 min 2 min 0 W/m 0,0 km/h (0 Bft) 95,65 %
01.05.2020 22:18 9,2 C 7,8 C 7,8 C 95 % 1003,1 hPa 0,0 l/m 0 min 2 min 0 W/m 0,0 km/h (0 Bft) 95,74 %
01.05.2020 22:20 9,2 C 7,8 C 7,8 C 95 % 1003,1 hPa 0,0 l/m 0 min 2 min 0 W/m 3,2 km/h (1 Bft) 95,74 %
01.05.2020 22:22 9,2 C 7,8 C 7,8 C 95 % 1003,1 hPa 0,2 l/m 0 min 2 min 0 W/m 3,2 km/h (1 Bft) 93,62 %
01.05.2020 22:24 9,2 C 7,8 C 7,8 C 95 % 1003,0 hPa 0,0 l/m 0 min 2 min 0 W/m 3,2 km/h (1 Bft) 95,74 %
01.05.2020 22:26 9,2 C 7,8 C 7,8 C 95 % 1003,0 hPa 0,0 l/m 0 min 2 min 0 W/m 3,2 km/h (1 Bft) 93,48 %
01.05.2020 22:28 9,2 C 7,8 C 7,8 C 95 % 1003,0 hPa 0,0 l/m 0 min 2 min 0 W/m 12,9 km/h (3 Bft) 97,87 %
01.05.2020 22:30 9,2 C 7,8 C 7,8 C 95 % 1003,0 hPa 0,0 l/m 0 min 0 min 0 W/m 3,2 km/h (1 Bft) 97,87 %
01.05.2020 22:32 9,2 C 7,8 C 7,8 C 95 % 1002,9 hPa 0,0 l/m 0 min 0 min 0 W/m 3,2 km/h (1 Bft) 97,87 %
01.05.2020 22:34 9,1 C 7,8 C 7,8 C 95 % 1002,8 hPa 0,0 l/m 0 min 0 min 0 W/m 0,0 km/h (0 Bft) 97,87 %
01.05.2020 22:36 9,1 C 7,8 C 7,8 C 95 % 1002,9 hPa 0,0 l/m 0 min 0 min 0 W/m 0,0 km/h (0 Bft) 97,87 %
01.05.2020 22:38 9,1 C 7,8 C 7,8 C 95 % 1002,9 hPa 0,0 l/m 0 min 0 min 0 W/m 0,0 km/h (0 Bft) 97,83 %
01.05.2020 22:40 9,1 C 7,8 C 7,8 C 95 % 1002,9 hPa 0,0 l/m 0 min 0 min 0 W/m 0,0 km/h (0 Bft) 97,87 %
01.05.2020 22:42 9,1 C 7,8 C 7,8 C 95 % 1002,9 hPa 0,0 l/m 0 min 0 min 0 W/m 3,2 km/h (1 Bft) 100,00 %
01.05.2020 22:44 9,1 C 7,8 C 7,8 C 95 % 1003,0 hPa 0,0 l/m 0 min 0 min 0 W/m 0,0 km/h (0 Bft) 100,00 %
01.05.2020 22:46 9,1 C 7,8 C 7,8 C 95 % 1003,0 hPa 0,0 l/m 0 min 0 min 0 W/m 3,2 km/h (1 Bft) 97,87 %
01.05.2020 22:48 9,1 C 7,8 C 7,8 C 95 % 1003,1 hPa 0,0 l/m 0 min 0 min 0 W/m 0,0 km/h (0 Bft) 100,00 %
01.05.2020 22:50 9,1 C 7,8 C 7,8 C 96 % 1003,1 hPa 0,0 l/m 0 min 0 min 0 W/m 3,2 km/h (1 Bft) 100,00 %
01.05.2020 22:52 9,1 C 7,8 C 7,8 C 96 % 1003,1 hPa 0,0 l/m 0 min 0 min 0 W/m 3,2 km/h (1 Bft) 100,00 %
01.05.2020 22:54 9,1 C 7,8 C 7,8 C 96 % 1003,2 hPa 0,0 l/m 0 min 0 min 0 W/m 12,9 km/h (3 Bft) 100,00 %
01.05.2020 22:56 9,1 C 7,8 C 7,8 C 96 % 1003,2 hPa 0,0 l/m 0 min 0 min 0 W/m 3,2 km/h (1 Bft) 98,15 %
01.05.2020 22:58 9,1 C 7,8 C 7,8 C 96 % 1003,3 hPa 0,0 l/m 0 min 0 min 0 W/m 6,4 km/h (2 Bft) 100,00 %
01.05.2020 23:00 9,1 C 7,8 C 7,2 C 96 % 1003,3 hPa 0,0 l/m 0 min 0 min 0 W/m 3,2 km/h (1 Bft) 100,00 %
01.05.2020 23:02 9,1 C 7,8 C 7,2 C 96 % 1003,3 hPa 0,0 l/m 0 min 0 min 0 W/m 6,4 km/h (2 Bft) 100,00 %
01.05.2020 23:04 9,1 C 7,8 C 7,2 C 96 % 1003,3 hPa 0,0 l/m 0 min 0 min 0 W/m 12,9 km/h (3 Bft) 100,00 %
01.05.2020 23:06 9,1 C 7,8 C 7,2 C 96 % 1003,3 hPa 0,0 l/m 0 min 0 min 0 W/m 12,9 km/h (3 Bft) 100,00 %
01.05.2020 23:08 9,1 C 7,8 C 7,2 C 96 % 1003,3 hPa 0,0 l/m 0 min 0 min 0 W/m 12,9 km/h (3 Bft) 97,87 %
01.05.2020 23:10 9,0 C 7,8 C 7,2 C 96 % 1003,3 hPa 0,0 l/m 0 min 0 min 0 W/m 12,9 km/h (3 Bft) 100,00 %
01.05.2020 23:12 9,0 C 7,8 C 7,8 C 96 % 1003,3 hPa 0,0 l/m 0 min 0 min 0 W/m 3,2 km/h (1 Bft) 100,00 %
01.05.2020 23:14 9,1 C 7,8 C 7,8 C 96 % 1003,4 hPa 0,0 l/m 0 min 0 min 0 W/m 12,9 km/h (3 Bft) 100,00 %
01.05.2020 23:16 9,1 C 7,8 C 7,8 C 96 % 1003,5 hPa 0,0 l/m 0 min 0 min 0 W/m 6,4 km/h (2 Bft) 100,00 %
01.05.2020 23:18 9,1 C 7,8 C 7,8 C 96 % 1003,5 hPa 0,0 l/m 0 min 0 min 0 W/m 6,4 km/h (2 Bft) 100,00 %
01.05.2020 23:20 9,1 C 7,8 C 7,8 C 96 % 1003,6 hPa 0,0 l/m 0 min 0 min 0 W/m 12,9 km/h (3 Bft) 97,87 %
01.05.2020 23:22 9,1 C 7,8 C 7,8 C 96 % 1003,7 hPa 0,0 l/m 0 min 0 min 0 W/m 9,7 km/h (2 Bft) 100,00 %
01.05.2020 23:24 9,1 C 7,8 C 7,8 C 96 % 1003,7 hPa 0,0 l/m 0 min 0 min 0 W/m 6,4 km/h (2 Bft) 100,00 %
01.05.2020 23:26 9,1 C 7,8 C 7,8 C 96 % 1003,7 hPa 0,0 l/m 0 min 0 min 0 W/m 12,9 km/h (3 Bft) 97,87 %
01.05.2020 23:28 9,1 C 7,8 C 7,8 C 96 % 1003,7 hPa 0,0 l/m 0 min 0 min 0 W/m 6,4 km/h (2 Bft) 100,00 %
01.05.2020 23:30 9,1 C 7,8 C 7,8 C 96 % 1003,7 hPa 0,0 l/m 0 min 0 min 0 W/m 3,2 km/h (1 Bft) 100,00 %
01.05.2020 23:32 9,1 C 7,8 C 7,8 C 96 % 1003,8 hPa 0,0 l/m 0 min 0 min 0 W/m 3,2 km/h (1 Bft) 100,00 %
01.05.2020 23:34 9,1 C 7,8 C 7,8 C 96 % 1003,7 hPa 0,0 l/m 0 min 2 min 0 W/m 3,2 km/h (1 Bft) 100,00 %
01.05.2020 23:36 9,1 C 7,8 C 7,8 C 96 % 1003,8 hPa 0,0 l/m 0 min 2 min 0 W/m 6,4 km/h (2 Bft) 97,83 %
01.05.2020 23:38 9,1 C 7,8 C 7,8 C 96 % 1003,7 hPa 0,0 l/m 0 min 2 min 0 W/m 3,2 km/h (1 Bft) 97,87 %
01.05.2020 23:40 9,1 C 7,8 C 7,8 C 96 % 1003,7 hPa 0,0 l/m 0 min 2 min 0 W/m 16,1 km/h (3 Bft) 100,00 %
01.05.2020 23:42 9,1 C 7,8 C 7,8 C 96 % 1003,7 hPa 0,0 l/m 0 min 2 min 0 W/m 16,1 km/h (3 Bft) 100,00 %
01.05.2020 23:44 9,1 C 7,8 C 7,8 C 96 % 1003,7 hPa 0,0 l/m 0 min 0 min 0 W/m 9,7 km/h (2 Bft) 100,00 %
01.05.2020 23:46 9,1 C 7,8 C 7,8 C 96 % 1003,7 hPa 0,0 l/m 0 min 2 min 0 W/m 16,1 km/h (3 Bft) 97,87 %
01.05.2020 23:48 9,1 C 7,8 C 7,8 C 96 % 1003,7 hPa 0,0 l/m 0 min 2 min 0 W/m 16,1 km/h (3 Bft) 100,00 %
01.05.2020 23:50 9,1 C 7,8 C 7,8 C 96 % 1003,7 hPa 0,0 l/m 0 min 0 min 0 W/m 3,2 km/h (1 Bft) 100,00 %
01.05.2020 23:52 9,1 C 7,8 C 7,8 C 96 % 1003,7 hPa 0,0 l/m 0 min 2 min 0 W/m 16,1 km/h (3 Bft) 100,00 %
01.05.2020 23:54 9,1 C 7,8 C 7,8 C 96 % 1003,6 hPa 0,0 l/m 0 min 0 min 0 W/m 16,1 km/h (3 Bft) 100,00 %
01.05.2020 23:56 9,1 C 7,8 C 7,8 C 96 % 1003,6 hPa 0,0 l/m 0 min 0 min 0 W/m 12,9 km/h (3 Bft) 100,00 %
01.05.2020 23:58 9,1 C 7,8 C 7,8 C 96 % 1003,6 hPa 0,0 l/m 0 min 0 min 0 W/m 3,2 km/h (1 Bft) 50,00 %
_ Min-Zeit 02:08 01:10 01:36 14:36 14:30 - - - - 00:02 00:02
Minimum _ 7,8 C 6,7 C 6,1 C 60 % 999,9 hPa - - - - 0,0 km/h (0 Bft) 6,67 %
_ Max-Zeit 14:36 14:20 14:22 02:16 23:32 19:36 12:08 16:20 13:26 12:24 03:10
Maximum _ 15,9 C 20,0 C 21,1 C 96 % 1003,8 hPa 0,8 l/m 4 min 2 min 1093 W/m 48,3 km/h
S (6 Bft)
100,00 %
Durchschnitt _ 11,0 C 11,0 C 10,3 C 83 % 1001,1 hPa #5,4 l/m #5:22 h #1:48 h 308 W/m 14,0 km/h (3 Bft) 97,27 %
© 2020 W. Hausmann